KC5DAQ-27 Weather Reports


time (UTC)temp
C
wind
direction
speed
KPH
gust
KPH
rain 1hr
cm
rain 24hr
cm
rain mn
cm
humidity
%
barometer
mb
20260506182407 26 155 8.0 17.7 0.00 0.00 0.00 88 1001.0
20260506182307 26 145 8.0 17.7 0.00 0.00 0.00 88 1001.1
20260506182208 26 141 8.0 17.7 0.00 0.00 0.00 88 1001.1
20260506182107 26 158 6.4 17.7 0.00 0.00 0.00 87 1001.0
20260506182007 26 158 9.7 17.7 0.00 0.00 0.00 87 1001.0
20260506181908 26 0 8.0 17.7 0.00 0.00 0.00 88 1001.1
20260506181807 26 0 6.4 17.7 0.00 0.00 0.00 87 1001.1
20260506181708 26 0 8.0 17.7 0.00 0.00 0.00 87 1001.1
20260506181607 26 0 9.7 17.7 0.00 0.00 0.00 87 1001.2
20260506181509 26 0 6.4 16.1 0.00 0.00 0.00 88 1001.2
20260506181407 26 0 4.8 16.1 0.00 0.00 0.00 88 1001.2
20260506181307 26 0 4.8 16.1 0.00 0.00 0.00 88 1001.2
20260506181208 26 0 6.4 16.1 0.00 0.00 0.00 88 1001.2
20260506181108 26 0 8.0 16.1 0.00 0.00 0.00 88 1001.3
20260506181007 26 0 9.7 16.1 0.00 0.00 0.00 88 1001.3
20260506180908 26 0 9.7 16.1 0.00 0.00 0.00 88 1001.3
20260506180808 26 0 8.0 14.5 0.00 0.00 0.00 88 1001.3
20260506180709 26 0 8.0 16.1 0.00 0.00 0.00 88 1001.3
20260506180607 26 151 6.4 16.1 0.00 0.00 0.00 88 1001.3
20260506180508 26 152 6.4 16.1 0.00 0.00 0.00 88 1001.4
20260506180407 26 152 8.0 16.1 0.00 0.00 0.00 88 1001.4
20260506180307 26 157 9.7 16.1 0.00 0.00 0.00 88 1001.5
20260506180208 26 125 9.7 16.1 0.00 0.00 0.00 88 1001.6
20260506180107 26 137 8.0 16.1 0.00 0.00 0.00 87 1001.6
20260506180007 26 138 9.7 17.7 0.00 0.00 0.00 87 1001.6
20260506175908 26 162 11.3 17.7 0.00 0.00 0.00 87 1001.6
20260506175808 26 0 11.3 17.7 0.00 0.00 0.00 87 1001.7
20260506175707 26 0 11.3 17.7 0.00 0.00 0.00 87 1001.7
20260506175607 26 0 11.3 17.7 0.00 0.00 0.00 87 1001.6
20260506175509 26 0 9.7 17.7 0.00 0.00 0.00 87 1001.6
20260506175407 27 0 11.3 17.7 0.00 0.00 0.00 86 1001.6
20260506175306 27 0 12.9 17.7 0.00 0.00 0.00 86 1001.6
20260506175207 27 0 12.9 17.7 0.00 0.00 0.00 86 1001.7
20260506175108 27 0 9.7 17.7 0.00 0.00 0.00 86 1001.6
20260506175007 27 0 6.4 17.7 0.00 0.00 0.00 85 1001.6
20260506174906 27 0 8.0 17.7 0.00 0.00 0.00 85 1001.6
20260506174808 27 0 9.7 17.7 0.00 0.00 0.00 85 1001.6
20260506174707 27 0 12.9 17.7 0.00 0.00 0.00 84 1001.7
20260506174607 27 0 11.3 17.7 0.00 0.00 0.00 84 1001.7
20260506174506 27 0 6.4 11.3 0.00 0.00 0.00 84 1001.8
20260506174408 27 0 3.2 8.0 0.00 0.00 0.00 84 1001.8
20260506174306 27 0 0.0 0.0 0.00 0.00 0.00 84 1001.8
20260506174206 27 0 0.0 0.0 0.00 0.03 0.00 85 1001.9
20260506174107 27 0 0.0 0.0 0.00 0.03 0.00 84 1001.8
20260506174006 27 0 0.0 0.0 0.00 0.03 0.00 84 1001.9
20260506173906 27 0 0.0 0.0 0.00 0.03 0.00 84 1002.0
20260506173806 27 0 0.0 0.0 0.00 0.03 0.00 85 1002.0
20260506173707 27 0 0.0 0.0 0.00 0.03 0.00 85 1002.0
20260506173607 27 0 0.0 0.0 0.00 0.03 0.00 84 1002.0
20260506173506 27 0 0.0 0.0 0.00 0.03 0.00 85 1001.9
20260506173408 27 0 0.0 0.0 0.00 0.03 0.00 85 1002.0
20260506173306 27 0 0.0 0.0 0.00 0.03 0.00 85 1002.1
20260506173207 27 0 0.0 0.0 0.00 0.03 0.00 85 1002.1
20260506173106 27 0 0.0 0.0 0.00 0.03 0.00 85 1002.0
20260506173007 27 0 0.0 0.0 0.00 0.03 0.00 85 1002.1
20260506172907 27 0 0.0 0.0 0.00 0.03 0.00 85 1002.0
20260506172806 27 0 0.0 0.0 0.00 0.03 0.00 85 1002.1
20260506172707 27 0 0.0 0.0 0.00 0.03 0.00 85 1002.1
20260506172607 27 0 0.0 0.0 0.00 0.03 0.00 85 1002.1
20260506172506 27 0 0.0 0.0 0.00 0.03 0.00 85 1002.1
20260506172406 27 0 0.0 0.0 0.00 0.03 0.00 85 1002.1
20260506172308 27 0 0.0 0.0 0.00 0.03 0.00 85 1002.1
20260506172206 27 0 0.0 0.0 0.00 0.03 0.00 85 1002.1
20260506172107 27 0 0.0 0.0 0.00 0.03 0.00 85 1002.1
20260506172006 27 0 0.0 0.0 0.00 0.03 0.00 86 1002.1
20260506171906 27 0 0.0 0.0 0.00 0.03 0.00 85 1002.1
20260506171806 27 0 0.0 0.0 0.00 0.03 0.00 85 1002.1
20260506171706 27 0 0.0 0.0 0.00 0.03 0.00 85 1002.2
20260506171607 27 0 0.0 0.0 0.00 0.03 0.00 85 1002.1
20260506171506 27 0 0.0 0.0 0.00 0.03 0.00 86 1002.2
20260506171406 27 0 0.0 0.0 0.00 0.03 0.00 86 1002.2
20260506171306 27 0 0.0 0.0 0.00 0.03 0.00 86 1002.2
20260506171206 27 0 0.0 0.0 0.00 0.03 0.00 86 1002.3
20260506171105 27 0 0.0 0.0 0.00 0.03 0.00 85 1002.3
20260506171008 27 0 0.0 0.0 0.00 0.03 0.00 85 1002.2
20260506170906 27 0 0.0 1.6 0.00 0.03 0.00 86 1002.3
20260506170805 27 0 0.0 3.2 0.00 0.03 0.00 86 1002.2
20260506170706 27 0 0.0 3.2 0.00 0.03 0.00 86 1002.2
20260506170607 27 0 0.0 6.4 0.00 0.03 0.00 86 1002.2
20260506170506 27 0 0.0 6.4 0.00 0.03 0.00 86 1002.2
20260506170405 27 0 0.0 8.0 0.00 0.03 0.00 86 1002.2
20260506170306 27 0 0.0 8.0 0.00 0.03 0.00 87 1002.2
20260506170207 27 0 0.0 8.0 0.00 0.03 0.00 87 1002.2
20260506170106 27 0 0.0 8.0 0.00 0.03 0.00 86 1002.2
20260506170006 27 0 1.6 8.0 0.00 0.03 0.00 86 1002.2
20260506165907 27 0 1.6 8.0 0.00 0.03 0.00 86 1002.3
20260506165805 27 0 3.2 8.0 0.00 0.03 0.00 86 1002.3
20260506165706 27 0 4.8 8.0 0.00 0.03 0.00 86 1002.3
20260506165605 27 0 4.8 8.0 0.00 0.03 0.00 87 1002.3
20260506165506 27 0 4.8 8.0 0.00 0.03 0.00 87 1002.3
20260506165405 27 0 3.2 6.4 0.00 0.03 0.00 87 1002.3
20260506165306 27 0 3.2 6.4 0.00 0.03 0.00 87 1002.3
20260506165207 27 0 1.6 8.0 0.00 0.03 0.00 87 1002.3
20260506165106 27 0 0.0 8.0 0.00 0.03 0.00 87 1002.3
20260506165006 26 0 0.0 8.0 0.00 0.03 0.00 87 1002.3
20260506164905 27 0 0.0 8.0 0.00 0.03 0.00 87 1002.3
20260506164806 27 0 0.0 8.0 0.00 0.03 0.00 87 1002.3
20260506164705 26 0 1.6 8.0 0.00 0.03 0.00 87 1002.3
20260506164605 26 0 3.2 8.0 0.00 0.03 0.00 87 1002.3
20260506164506 26 0 4.8 8.0 0.00 0.03 0.00 87 1002.4
20260506164405 27 0 6.4 8.0 0.00 0.03 0.00 87 1002.4
20260506164305 27 0 6.4 8.0 0.00 0.03 0.00 88 1002.3
20260506164207 27 0 4.8 8.0 0.00 0.03 0.00 88 1002.3
20260506164105 26 0 1.6 8.0 0.00 0.03 0.00 88 1002.2
20260506164006 26 0 1.6 8.0 0.00 0.03 0.00 88 1002.3
20260506163905 26 0 3.2 8.0 0.00 0.03 0.00 88 1002.2
20260506163806 26 0 3.2 8.0 0.00 0.03 0.00 88 1002.2
20260506163705 26 0 4.8 8.0 0.00 0.03 0.00 88 1002.3
20260506163605 26 0 6.4 8.0 0.00 0.03 0.00 88 1002.2
20260506163506 26 0 4.8 8.0 0.00 0.03 0.00 88 1002.3
20260506163405 26 0 4.8 8.0 0.00 0.03 0.00 88 1002.2
20260506163305 26 0 4.8 8.0 0.00 0.03 0.00 88 1002.3
20260506163204 26 0 3.2 8.0 0.00 0.03 0.00 89 1002.2
20260506163106 26 0 3.2 8.0 0.00 0.03 0.00 89 1002.1
20260506163005 26 0 3.2 8.0 0.00 0.03 0.00 89 1002.1
20260506162905 26 0 4.8 8.0 0.00 0.03 0.00 89 1002.2
20260506162806 26 0 6.4 8.0 0.00 0.03 0.00 89 1002.1
20260506162706 26 0 4.8 8.0 0.00 0.03 0.00 89 1002.0
20260506162605 26 0 6.4 8.0 0.00 0.03 0.00 89 1002.0
20260506162506 26 0 6.4 8.0 0.00 0.03 0.00 89 1002.0
20260506162406 26 0 6.4 8.0 0.00 0.03 0.00 89 1001.9
20260506162307 26 0 4.8 8.0 0.00 0.03 0.00 89 1002.0
20260506162205 26 0 6.4 8.0 0.00 0.03 0.00 89 1002.0
20260506162106 26 0 6.4 8.0 0.00 0.03 0.00 89 1002.0
20260506162004 26 0 4.8 8.0 0.00 0.03 0.00 89 1002.0
20260506161905 26 0 4.8 8.0 0.00 0.03 0.00 89 1002.0
20260506161806 26 0 3.2 8.0 0.00 0.03 0.00 89 1002.0
20260506161706 26 0 3.2 8.0 0.00 0.03 0.00 89 1001.9
20260506161604 26 0 3.2 8.0 0.00 0.03 0.00 89 1001.9
20260506161505 26 0 0.0 8.0 0.00 0.03 0.00 89 1002.0
20260506161406 26 0 0.0 8.0 0.00 0.03 0.00 89 1001.9
20260506161305 26 0 0.0 8.0 0.00 0.03 0.00 89 1001.9
20260506161204 26 0 0.0 8.0 0.00 0.03 0.00 89 1002.0
20260506161104 26 0 0.0 8.0 0.00 0.03 0.00 89 1001.9
20260506161005 26 137 1.6 8.0 0.00 0.03 0.00 89 1002.0
20260506160904 26 137 4.8 8.0 0.00 0.03 0.00 89 1002.0
20260506160804 26 138 6.4 9.7 0.00 0.03 0.00 89 1002.0
20260506160706 26 175 4.8 9.7 0.00 0.03 0.00 89 1001.9
20260506160603 26 178 4.8 9.7 0.00 0.03 0.00 89 1001.9
20260506160504 26 178 4.8 11.3 0.00 0.03 0.00 89 1001.9
20260506160401 26 185 4.8 11.3 0.00 0.03 0.00 89 1001.9
20260506160302 26 176 3.2 11.3 0.00 0.03 0.00 90 1001.9
20260506160204 26 168 4.8 14.5 0.00 0.03 0.00 89 1001.8
20260506160003 26 168 6.4 14.5 0.00 0.03 0.00 89 1001.8
20260506155904 26 169 6.4 14.5 0.00 0.03 0.00 89 1001.7
20260506155803 26 176 8.0 14.5 0.00 0.03 0.00 89 1001.7
20260506155702 26 182 9.7 14.5 0.00 0.03 0.00 89 1001.6
20260506155602 26 168 9.7 14.5 0.00 0.03 0.00 89 1001.6
20260506155504 26 173 8.0 14.5 0.00 0.03 0.00 89 1001.5
20260506155402 26 158 9.7 14.5 0.00 0.03 0.00 89 1001.5
20260506155306 26 159 9.7 14.5 0.00 0.03 0.00 90 1001.5
20260506155204 26 157 8.0 11.3 0.00 0.03 0.00 90 1001.5
20260506155103 26 159 6.4 11.3 0.00 0.03 0.00 90 1001.5
20260506155003 26 197 6.4 11.3 0.00 0.03 0.00 90 1001.5
20260506154903 26 166 6.4 11.3 0.00 0.03 0.00 90 1001.6
20260506154803 26 164 8.0 14.5 0.00 0.03 0.00 90 1001.6
20260506154702 26 166 8.0 14.5 0.00 0.03 0.00 90 1001.6
20260506154603 26 162 8.0 14.5 0.00 0.03 0.00 90 1001.6
20260506154504 26 169 6.4 14.5 0.00 0.03 0.00 90 1001.6
20260506154402 26 151 6.4 14.5 0.00 0.03 0.00 90 1001.6
20260506154302 26 182 6.4 14.5 0.00 0.03 0.00 90 1001.7
20260506154203 26 182 6.4 14.5 0.00 0.03 0.00 90 1001.7
20260506154103 26 155 8.0 14.5 0.00 0.03 0.00 90 1001.7
20260506154004 26 171 8.0 14.5 0.00 0.03 0.00 90 1001.8
20260506153902 26 158 8.0 14.5 0.00 0.03 0.00 90 1001.7
20260506153803 26 161 6.4 11.3 0.00 0.03 0.00 90 1001.7
20260506153703 26 168 6.4 11.3 0.00 0.03 0.00 90 1001.6
20260506153602 26 165 8.0 11.3 0.00 0.03 0.00 90 1001.7
20260506153503 26 173 6.4 9.7 0.00 0.03 0.00 90 1001.7
20260506153404 26 0 8.0 9.7 0.00 0.03 0.00 90 1001.6
20260506153302 26 0 9.7 9.7 0.00 0.03 0.00 90 1001.6
20260506153202 26 355 8.0 9.7 0.00 0.03 0.00 90 1001.6
20260506153103 26 0 8.0 9.7 0.00 0.03 0.00 90 1001.6
20260506153002 26 0 8.0 9.7 0.00 0.03 0.00 90 1001.5
20260506152902 26 0 6.4 9.7 0.00 0.03 0.00 90 1001.5
20260506152803 26 0 6.4 9.7 0.00 0.03 0.00 91 1001.6
20260506152702 26 0 6.4 9.7 0.00 0.03 0.00 91 1001.7
20260506152602 26 0 6.4 9.7 0.00 0.03 0.00 91 1001.7
20260506152502 26 0 6.4 9.7 0.00 0.03 0.00 91 1001.6
20260506152403 26 0 6.4 9.7 0.00 0.03 0.00 91 1001.7
20260506152305 26 0 6.4 9.7 0.00 0.03 0.00 91 1001.7
20260506152200 26 0 6.4 9.7 0.00 0.03 0.00 91 1001.7
20260506152058 26 0 6.4 9.7 0.00 0.03 0.00 91 1001.6
20260506151956 26 0 4.8 14.5 0.00 0.03 0.00 91 1001.6
20260506151853 26 0 4.8 16.1 0.00 0.03 0.00 91 1001.6
20260506151753 26 0 6.4 16.1 0.00 0.03 0.00 91 1001.6
20260506151653 26 149 4.8 16.1 0.00 0.03 0.00 92 1001.5
20260506151551 25 141 4.8 16.1 0.00 0.03 0.00 92 1001.5
20260506151449 25 147 6.4 16.1 0.00 0.03 0.00 92 1001.6
20260506151347 25 140 6.4 16.1 0.00 0.03 0.00 92 1001.5
20260506151247 25 165 8.0 16.1 0.00 0.03 0.00 92 1001.6
20260506151145 25 166 9.7 16.1 0.00 0.03 0.00 92 1001.6
20260506151043 25 166 11.3 16.1 0.00 0.03 0.00 92 1001.6
20260506150941 25 168 9.7 16.1 0.00 0.03 0.00 92 1001.5
20260506150837 25 138 8.0 16.1 0.00 0.03 0.00 92 1001.5
20260506150735 25 172 8.0 16.1 0.00 0.03 0.00 92 1001.5
20260506150633 25 183 8.0 16.1 0.00 0.03 0.00 92 1001.6
20260506150532 25 0 9.7 16.1 0.00 0.03 0.00 93 1001.6
20260506150431 25 0 9.7 16.1 0.00 0.03 0.00 93 1001.5
20260506150332 25 0 9.7 16.1 0.00 0.03 0.00 93 1001.5
20260506150231 25 0 9.7 16.1 0.00 0.03 0.00 93 1001.4
20260506150131 25 0 11.3 16.1 0.00 0.03 0.00 93 1001.4
20260506150031 25 0 12.9 16.1 0.00 0.03 0.00 93 1001.4
20260506145931 25 0 11.3 16.1 0.00 0.03 0.00 93 1001.4
20260506145831 25 0 9.7 16.1 0.00 0.03 0.00 93 1001.2
20260506145731 25 0 11.3 16.1 0.00 0.03 0.00 93 1001.2
20260506145632 25 0 11.3 16.1 0.00 0.03 0.00 93 1001.3
20260506145530 25 0 11.3 14.5 0.00 0.03 0.00 93 1001.3
20260506145432 25 0 9.7 14.5 0.00 0.03 0.00 93 1001.2
20260506145333 25 0 8.0 14.5 0.00 0.03 0.00 94 1001.2
20260506145231 25 0 9.7 14.5 0.00 0.03 0.00 94 1001.2
20260506145132 25 0 9.7 14.5 0.00 0.03 0.00 94 1001.3
20260506145029 25 173 8.0 14.5 0.00 0.03 0.00 94 1001.3
20260506144931 25 155 8.0 14.5 0.00 0.03 0.00 94 1001.3
20260506144830 25 171 9.7 14.5 0.00 0.03 0.00 94 1001.4
20260506144728 25 165 9.7 14.5 0.00 0.03 0.00 94 1001.4
20260506144627 25 171 8.0 14.5 0.00 0.03 0.00 94 1001.4
20260506144526 25 140 8.0 14.5 0.00 0.03 0.00 94 1001.4
20260506144425 25 138 9.7 14.5 0.00 0.03 0.00 94 1001.3
20260506144323 25 161 11.3 14.5 0.00 0.03 0.00 94 1001.3
20260506144222 25 159 8.0 14.5 0.00 0.03 0.00 94 1001.3
20260506144120 25 148 4.8 9.7 0.00 0.03 0.00 94 1001.2
20260506144018 25 152 3.2 9.7 0.00 0.03 0.00 94 1001.1
20260506143917 25 131 1.6 6.4 0.00 0.03 0.00 94 1001.1
20260506143815 25 144 3.2 6.4 0.00 0.03 0.00 95 1001.1
20260506143714 25 134 1.6 6.4 0.00 0.03 0.00 95 1001.0
20260506143612 25 121 0.0 6.4 0.00 0.03 0.00 94 1001.0
20260506143512 25 145 1.6 6.4 0.00 0.03 0.00 94 1001.0
20260506143410 25 149 1.6 6.4 0.00 0.03 0.00 94 1000.9
20260506143308 25 140 1.6 8.0 0.00 0.03 0.00 94 1000.9
20260506143207 25 135 1.6 8.0 0.00 0.03 0.00 95 1000.9
20260506143102 25 154 0.0 8.0 0.00 0.03 0.00 95 1000.9
20260506143003 25 135 0.0 8.0 0.00 0.03 0.00 95 1000.8
20260506142903 25 151 0.0 8.0 0.00 0.03 0.00 95 1000.9
20260506142801 25 144 0.0 8.0 0.00 0.03 0.00 95 1000.9
20260506142659 25 124 0.0 8.0 0.00 0.03 0.00 95 1000.8
20260506142557 25 148 3.2 8.0 0.00 0.03 0.00 95 1000.8
20260506142456 25 147 3.2 8.0 0.00 0.03 0.00 95 1000.8
20260506142355 25 131 1.6 8.0 0.00 0.03 0.00 95 1000.8
20260506142253 25 135 0.0 4.8 0.00 0.03 0.00 95 1000.8
20260506142152 25 134 0.0 6.4 0.00 0.03 0.00 95 1000.8
20260506142050 25 131 0.0 6.4 0.00 0.03 0.00 95 1000.8
20260506141949 25 131 0.0 6.4 0.00 0.03 0.00 95 1000.8
20260506141847 25 147 0.0 6.4 0.00 0.03 0.00 95 1000.8
20260506141744 25 148 0.0 8.0 0.00 0.03 0.00 95 1000.7
20260506141644 25 147 0.0 8.0 0.00 0.03 0.00 95 1000.8
20260506141542 25 145 0.0 8.0 0.00 0.03 0.00 95 1000.8
20260506141441 25 145 1.6 8.0 0.00 0.03 0.00 95 1000.8
20260506141339 25 144 3.2 8.0 0.00 0.03 0.00 95 1000.9
20260506141238 25 147 3.2 8.0 0.00 0.03 0.00 95 1000.9
20260506141137 25 145 3.2 8.0 0.00 0.03 0.00 95 1000.9
20260506141035 25 145 4.8 8.0 0.00 0.03 0.00 95 1000.9
20260506140934 25 158 4.8 9.7 0.00 0.03 0.00 95 1000.9
20260506140833 25 155 4.8 11.3 0.00 0.03 0.00 95 1000.9
20260506140730 25 159 3.2 14.5 0.00 0.03 0.00 95 1000.8
20260506140630 25 158 3.2 14.5 0.00 0.03 0.00 95 1000.8
20260506140527 24 158 3.2 14.5 0.00 0.03 0.00 95 1000.8
20260506140426 24 158 3.2 14.5 0.00 0.03 0.00 95 1000.8
20260506140325 24 158 6.4 14.5 0.00 0.03 0.00 95 1000.7
20260506140223 24 157 6.4 14.5 0.00 0.03 0.00 95 1000.7
20260506140121 24 147 6.4 14.5 0.00 0.03 0.00 95 1000.8
20260506140022 24 169 8.0 14.5 0.00 0.03 0.00 95 1000.8
20260506135920 24 157 11.3 14.5 0.00 0.03 0.00 95 1000.8
20260506135818 24 157 11.3 14.5 0.00 0.03 0.00 95 1000.8
20260506135717 24 162 9.7 14.5 0.00 0.03 0.00 96 1000.9
20260506135615 24 166 8.0 11.3 0.00 0.03 0.00 96 1000.9
20260506135514 24 172 8.0 11.3 0.00 0.03 0.00 96 1000.9
20260506135412 24 188 8.0 11.3 0.00 0.03 0.00 96 1000.8
20260506135311 24 151 8.0 11.3 0.00 0.03 0.00 96 1000.9
20260506135209 24 173 8.0 11.3 0.00 0.03 0.00 96 1000.9
20260506135108 24 164 8.0 14.5 0.00 0.03 0.00 96 1001.0
20260506135006 24 161 8.0 14.5 0.00 0.03 0.00 96 1001.0
20260506134904 24 183 6.4 14.5 0.00 0.03 0.00 96 1001.0
20260506134803 24 192 4.8 14.5 0.00 0.03 0.00 96 1000.9
20260506134702 24 162 3.2 14.5 0.00 0.03 0.00 96 1001.0
20260506134604 24 161 4.8 14.5 0.00 0.03 0.00 96 1001.0
20260506134504 24 155 6.4 14.5 0.00 0.03 0.00 96 1001.0
20260506134403 24 175 9.7 14.5 0.00 0.03 0.00 96 1001.0
20260506134303 24 164 9.7 14.5 0.00 0.03 0.00 96 1001.0
20260506134203 24 169 8.0 11.3 0.00 0.03 0.00 96 1001.1
20260506134102 24 155 6.4 11.3 0.00 0.03 0.00 96 1001.1
20260506134002 24 162 6.4 11.3 0.00 0.03 0.00 96 1001.2
20260506133904 24 166 4.8 11.3 0.00 0.03 0.00 96 1001.1
20260506133803 24 152 4.8 11.3 0.00 0.03 0.00 96 1001.1
20260506133702 24 152 6.4 11.3 0.00 0.03 0.00 96 1001.2
20260506133602 24 169 6.4 11.3 0.00 0.03 0.00 96 1001.2
20260506133503 24 144 4.8 11.3 0.00 0.03 0.00 96 1001.2
20260506133402 24 127 4.8 11.3 0.00 0.03 0.00 96 1001.1
20260506133302 24 127 4.8 11.3 0.00 0.03 0.00 96 1001.2
20260506133203 24 130 4.8 11.3 0.00 0.03 0.00 96 1001.2
20260506133102 24 127 6.4 11.3 0.00 0.03 0.00 96 1001.1
20260506133002 24 140 4.8 11.3 0.00 0.03 0.00 96 1001.1
20260506132902 24 123 3.2 11.3 0.00 0.03 0.00 96 1001.1
20260506132802 24 164 3.2 11.3 0.00 0.03 0.00 96 1001.1
20260506132704 24 165 4.8 11.3 0.00 0.03 0.00 96 1001.1
20260506132602 24 166 4.8 11.3 0.00 0.03 0.00 96 1001.1
20260506132503 24 164 6.4 11.3 0.00 0.03 0.00 96 1001.2
20260506132402 24 155 6.4 11.3 0.00 0.03 0.00 96 1001.1
20260506132305 24 159 6.4 11.3 0.00 0.03 0.00 96 1001.1
20260506132203 24 155 6.4 9.7 0.00 0.03 0.00 96 1001.1
20260506132102 24 140 6.4 9.7 0.00 0.03 0.00 96 1001.0
20260506132002 24 135 6.4 9.7 0.00 0.03 0.00 96 1001.1
20260506131902 24 145 6.4 9.7 0.00 0.05 0.00 96 1001.1
20260506131804 24 159 6.4 9.7 0.00 0.05 0.00 96 1001.0
20260506131702 24 145 6.4 9.7 0.00 0.05 0.00 96 1001.1
20260506131602 24 127 6.4 9.7 0.00 0.05 0.00 96 1001.1
20260506131503 24 121 6.4 9.7 0.00 0.05 0.00 96 1001.1
20260506131402 24 148 6.4 9.7 0.00 0.05 0.00 96 1001.1
20260506131302 24 142 6.4 9.7 0.00 0.05 0.00 96 1001.1
20260506131201 24 151 4.8 9.7 0.00 0.05 0.00 96 1001.1
20260506131103 24 154 4.8 9.7 0.00 0.05 0.00 96 1001.1
20260506131003 24 158 4.8 9.7 0.00 0.05 0.00 96 1001.1
20260506130901 24 158 4.8 9.7 0.00 0.05 0.00 96 1001.1
20260506130803 24 131 6.4 9.7 0.00 0.05 0.00 96 1001.2
20260506130703 24 125 6.4 9.7 0.00 0.05 0.00 96 1001.1
20260506130602 24 118 4.8 9.7 0.00 0.05 0.00 96 1001.2
20260506130502 24 125 3.2 9.7 0.00 0.05 0.00 96 1001.1
20260506130403 24 134 4.8 9.7 0.00 0.05 0.00 96 1001.2
20260506130304 24 128 4.8 9.7 0.00 0.05 0.00 96 1001.2
20260506130202 23 127 4.8 9.7 0.00 0.05 0.00 96 1001.2
20260506130103 23 127 4.8 9.7 0.00 0.05 0.00 96 1001.2
20260506130003 24 0 3.2 9.7 0.00 0.05 0.00 96 1001.3
20260506125902 23 123 6.4 9.7 0.00 0.05 0.00 96 1001.2
20260506125802 23 158 6.4 9.7 0.00 0.05 0.00 96 1001.2
20260506125702 23 140 6.4 9.7 0.00 0.05 0.00 96 1001.2
20260506125603 23 151 4.8 8.0 0.00 0.05 0.00 96 1001.2
20260506125502 23 147 6.4 8.0 0.00 0.05 0.00 96 1001.0
20260506125403 23 144 4.8 8.0 0.00 0.05 0.00 96 1001.1
20260506125304 23 127 4.8 9.7 0.00 0.05 0.00 96 1001.0
20260506125202 23 166 4.8 9.7 0.00 0.05 0.00 96 1001.0
20260506125104 23 152 3.2 9.7 0.00 0.05 0.00 96 1001.0
20260506125003 23 152 4.8 9.7 0.00 0.05 0.00 96 1000.9
20260506124902 23 152 4.8 11.3 0.00 0.05 0.00 96 1001.0
20260506124802 23 152 6.4 11.3 0.00 0.05 0.00 96 1000.9
20260506124703 23 148 6.4 11.3 0.00 0.05 0.00 96 1000.9
20260506124602 23 148 6.4 11.3 0.00 0.05 0.00 96 1000.9
20260506124502 23 147 6.4 11.3 0.00 0.05 0.00 96 1000.9
20260506124403 23 147 6.4 11.3 0.00 0.05 0.00 96 1001.0
20260506124302 23 145 6.4 11.3 0.00 0.05 0.00 96 1000.9
20260506124202 23 141 6.4 11.3 0.00 0.05 0.00 96 1000.9
20260506124102 23 149 8.0 11.3 0.00 0.05 0.00 96 1000.9
20260506124004 23 189 8.0 11.3 0.00 0.05 0.00 96 1000.9
20260506123902 23 151 8.0 9.7 0.00 0.05 0.00 96 1000.9
20260506123802 23 158 6.4 9.7 0.00 0.05 0.00 96 1000.9
20260506123703 23 154 8.0 9.7 0.00 0.05 0.00 96 1000.9
20260506123602 23 155 8.0 9.7 0.00 0.05 0.00 96 1000.9
20260506123501 23 151 6.4 9.7 0.00 0.05 0.00 96 1000.9
20260506123403 23 165 6.4 9.7 0.00 0.05 0.00 96 1000.8
20260506123302 23 162 6.4 9.7 0.00 0.05 0.00 96 1000.9
20260506123203 23 165 6.4 9.7 0.00 0.05 0.00 96 1000.9
20260506123102 23 144 6.4 8.0 0.00 0.05 0.00 96 1000.9
20260506123004 23 144 4.8 8.0 0.00 0.05 0.00 96 1000.8
20260506122902 23 130 6.4 8.0 0.00 0.05 0.00 96 1000.9
20260506122802 23 140 4.8 8.0 0.00 0.05 0.00 96 1000.9
20260506122702 23 148 0.0 6.4 0.00 0.05 0.00 96 1000.9
20260506122603 23 152 0.0 0.0 0.00 0.05 0.00 96 1000.9
20260506122503 23 151 0.0 0.0 0.00 0.05 0.00 96 1000.9
20260506122402 23 144 0.0 0.0 0.00 0.05 0.00 96 1000.9
20260506122305 23 144 0.0 0.0 0.00 0.05 0.00 96 1000.8
20260506122202 23 144 0.0 0.0 0.00 0.05 0.00 96 1000.9
20260506122102 23 142 0.0 0.0 0.00 0.05 0.00 96 1000.8
20260506122003 23 149 0.0 0.0 0.00 0.05 0.00 96 1000.7
20260506121902 23 152 0.0 0.0 0.00 0.05 0.00 96 1000.8
20260506121802 23 152 0.0 0.0 0.00 0.05 0.00 96 1000.9
20260506121704 23 154 0.0 0.0 0.00 0.05 0.00 96 1000.8
20260506121603 23 155 0.0 0.0 0.00 0.05 0.00 96 1000.7
20260506121502 23 157 0.0 0.0 0.00 0.05 0.00 96 1000.8
20260506121403 23 158 0.0 0.0 0.00 0.05 0.00 96 1000.7
20260506121304 23 158 0.0 0.0 0.00 0.05 0.00 96 1000.8
20260506121202 23 159 0.0 0.0 0.00 0.05 0.00 96 1000.8
20260506121102 23 159 0.0 0.0 0.00 0.05 0.00 96 1000.7
20260506121003 23 161 0.0 0.0 0.00 0.05 0.00 96 1000.7
20260506120902 23 161 0.0 0.0 0.00 0.05 0.00 96 1000.7
20260506120802 23 161 0.0 0.0 0.00 0.05 0.00 96 1000.7
20260506120703 23 161 0.0 0.0 0.00 0.05 0.00 96 1000.6
20260506120603 23 161 0.0 0.0 0.00 0.05 0.00 96 1000.7
20260506120504 23 161 0.0 0.0 0.00 0.05 0.00 96 1000.6
20260506120402 23 161 0.0 0.0 0.00 0.05 0.00 96 1000.8
20260506120302 23 162 0.0 0.0 0.00 0.05 0.00 96 1000.7
20260506120202 23 162 0.0 0.0 0.00 0.05 0.00 96 1000.6
20260506120003 23 162 0.0 0.0 0.00 0.05 0.00 96 1000.7
20260506115904 23 162 0.0 0.0 0.00 0.05 0.00 96 1000.7
20260506115803 23 162 0.0 0.0 0.00 0.05 0.00 96 1000.7
20260506115702 23 162 0.0 0.0 0.00 0.05 0.00 96 1000.7
20260506115603 23 164 0.0 0.0 0.00 0.05 0.00 96 1000.7
20260506115502 23 164 0.0 0.0 0.00 0.05 0.00 96 1000.7
20260506115403 23 164 0.0 0.0 0.00 0.05 0.00 96 1000.7
20260506115306 23 164 0.0 0.0 0.00 0.05 0.00 96 1000.7
20260506115204 23 164 0.0 0.0 0.00 0.05 0.00 96 1000.7
20260506115102 23 165 0.0 0.0 0.00 0.05 0.00 96 1000.7
20260506115000 23 165 0.0 0.0 0.00 0.05 0.00 96 1000.6
20260506114859 23 165 0.0 0.0 0.00 0.05 0.00 96 1000.6
20260506114759 23 165 0.0 0.0 0.00 0.05 0.00 96 1000.5
20260506114700 23 166 0.0 0.0 0.00 0.05 0.00 96 1000.5
20260506114558 23 166 0.0 0.0 0.00 0.05 0.00 96 1000.4
20260506114459 23 166 0.0 0.0 0.00 0.05 0.00 96 1000.4
20260506114358 23 166 0.0 0.0 0.00 0.05 0.00 96 1000.4
20260506114300 23 168 0.0 0.0 0.00 0.05 0.00 96 1000.4
20260506114158 23 168 0.0 0.0 0.00 0.05 0.00 96 1000.3
20260506114059 23 168 0.0 0.0 0.00 0.05 0.00 96 1000.4
20260506113959 23 180 0.0 0.0 0.00 0.05 0.00 96 1000.3
20260506113858 23 182 0.0 0.0 0.00 0.05 0.00 96 1000.3
20260506113759 23 183 0.0 0.0 0.00 0.05 0.00 96 1000.3
20260506113658 23 183 0.0 0.0 0.00 0.05 0.00 96 1000.3
20260506113559 23 183 0.0 0.0 0.00 0.05 0.00 95 1000.4
20260506113459 23 183 0.0 0.0 0.00 0.05 0.00 95 1000.3
20260506113358 23 183 0.0 0.0 0.00 0.05 0.00 95 1000.3
20260506113259 23 185 0.0 0.0 0.00 0.05 0.00 95 1000.4
20260506113159 23 185 0.0 0.0 0.00 0.05 0.00 95 1000.5
20260506113058 23 185 0.0 0.0 0.00 0.05 0.00 95 1000.6
20260506112958 23 185 0.0 0.0 0.00 0.05 0.00 95 1000.6
20260506112859 23 185 0.0 0.0 0.00 0.05 0.00 95 1000.5
20260506112758 23 193 0.0 0.0 0.00 0.05 0.00 95 1000.5
20260506112658 23 193 0.0 0.0 0.00 0.05 0.00 95 1000.5
20260506112600 23 193 0.0 0.0 0.00 0.05 0.00 96 1000.5
20260506112458 23 193 0.0 0.0 0.00 0.05 0.00 95 1000.5
20260506112359 23 193 0.0 0.0 0.00 0.05 0.00 95 1000.4
20260506112259 23 193 0.0 0.0 0.00 0.05 0.00 95 1000.5
20260506112158 23 195 0.0 0.0 0.00 0.05 0.00 95 1000.4
20260506112058 23 195 0.0 0.0 0.00 0.05 0.00 96 1000.5
20260506111958 23 195 0.0 0.0 0.00 0.05 0.00 95 1000.4
20260506111859 23 195 0.0 0.0 0.00 0.05 0.00 96 1000.4
20260506111758 23 195 0.0 1.6 0.00 0.05 0.00 96 1000.3
20260506111658 23 195 0.0 1.6 0.00 0.05 0.00 95 1000.3
20260506111559 23 195 0.0 1.6 0.00 0.05 0.00 95 1000.3
20260506111458 23 195 0.0 1.6 0.00 0.05 0.00 95 1000.2
20260506111359 23 195 0.0 1.6 0.00 0.05 0.00 95 1000.1
20260506111258 23 195 0.0 1.6 0.00 0.05 0.00 95 1000.2
20260506111159 23 196 0.0 1.6 0.00 0.05 0.00 95 1000.2
20260506111057 23 196 0.0 1.6 0.00 0.05 0.00 95 1000.1
20260506110958 23 196 0.0 11.3 0.00 0.05 0.00 95 1000.0
20260506110900 23 196 0.0 11.3 0.00 0.05 0.00 95 1000.1
20260506110800 23 186 0.0 11.3 0.00 0.05 0.00 95 1000.1
20260506110658 23 173 0.0 16.1 0.00 0.05 0.00 95 1000.1
20260506110558 23 189 0.0 16.1 0.00 0.05 0.00 95 1000.0
20260506110459 23 188 0.0 16.1 0.00 0.05 0.00 95 1000.0
20260506110358 23 188 0.0 16.1 0.00 0.05 0.00 95 1000.0
20260506110257 23 182 0.0 16.1 0.00 0.05 0.00 95 999.9
20260506110157 23 159 3.2 16.1 0.00 0.05 0.00 95 999.9
20260506110058 23 159 6.4 16.1 0.00 0.05 0.00 95 999.9
20260506105957 23 161 6.4 16.1 0.00 0.05 0.00 95 1000.0
20260506105858 23 164 9.7 16.1 0.00 0.05 0.00 95 999.9
20260506105759 23 178 9.7 16.1 0.00 0.05 0.00 95 999.8
20260506105657 23 154 8.0 16.1 0.00 0.05 0.00 95 999.9
20260506105558 23 171 8.0 16.1 0.00 0.05 0.00 95 999.9
20260506105459 23 168 9.7 16.1 0.00 0.05 0.00 95 999.9
20260506105357 23 168 6.4 17.7 0.00 0.08 0.00 95 999.9
20260506105255 23 189 8.0 17.7 0.00 0.08 0.00 95 999.9
20260506105154 23 158 9.7 17.7 0.00 0.08 0.00 95 999.9
20260506105053 23 176 9.7 20.9 0.00 0.08 0.00 95 999.8
20260506104952 23 173 11.3 20.9 0.00 0.08 0.00 95 999.8
20260506104850 23 168 9.7 20.9 0.00 0.08 0.00 95 999.8
20260506104748 23 165 8.0 20.9 0.00 0.08 0.00 95 999.8
20260506104647 23 171 8.0 20.9 0.00 0.08 0.00 95 999.7
20260506104546 23 158 11.3 20.9 0.00 0.08 0.00 95 999.8
20260506104444 23 162 11.3 20.9 0.00 0.08 0.00 95 999.7
20260506104343 23 145 11.3 20.9 0.00 0.08 0.00 95 999.7
20260506104241 23 166 11.3 20.9 0.00 0.08 0.00 95 999.7
20260506104140 23 169 9.7 17.7 0.00 0.08 0.00 95 999.6
20260506104038 23 154 9.7 17.7 0.00 0.08 0.00 95 999.6
20260506103936 23 171 11.3 17.7 0.00 0.08 0.00 95 999.6
20260506103835 23 165 12.9 17.7 0.00 0.08 0.00 95 999.5
20260506103733 23 157 11.3 17.7 0.00 0.08 0.00 95 999.5
20260506103632 23 165 11.3 22.5 0.00 0.08 0.00 95 999.4
20260506103531 23 152 11.3 22.5 0.00 0.08 0.00 95 999.4
20260506103430 23 176 11.3 22.5 0.00 0.08 0.00 95 999.4
20260506103331 23 166 11.3 22.5 0.00 0.08 0.00 95 999.4
20260506103231 23 171 11.3 22.5 0.00 0.08 0.00 95 999.4
20260506103131 23 164 11.3 22.5 0.00 0.08 0.00 95 999.4
20260506103031 23 159 12.9 22.5 0.00 0.08 0.00 95 999.4
20260506102931 23 179 14.5 22.5 0.00 0.08 0.00 95 999.5
20260506102828 23 148 14.5 22.5 0.00 0.08 0.00 95 999.5
20260506102728 23 164 14.5 22.5 0.00 0.08 0.00 95 999.6
20260506102627 23 145 12.9 19.3 0.00 0.08 0.00 95 999.5
20260506102525 23 147 11.3 19.3 0.00 0.08 0.00 95 999.5
20260506102425 23 165 9.7 20.9 0.00 0.08 0.00 95 999.5
20260506102321 23 180 11.3 20.9 0.00 0.08 0.00 95 999.6
20260506102221 23 158 12.9 20.9 0.00 0.08 0.00 95 999.6
20260506102119 23 166 12.9 20.9 0.00 0.08 0.00 95 999.6
20260506102018 23 193 12.9 20.9 0.00 0.08 0.00 95 999.6
20260506101916 23 169 12.9 20.9 0.00 0.08 0.00 95 999.6
20260506101816 23 172 12.9 20.9 0.00 0.08 0.00 95 999.6
20260506101714 23 173 12.9 20.9 0.00 0.08 0.00 95 999.7
20260506101612 23 154 14.5 20.9 0.00 0.08 0.00 95 999.7
20260506101510 23 161 14.5 20.9 0.00 0.08 0.00 95 999.7
20260506101409 23 168 12.9 20.9 0.00 0.08 0.00 95 999.7
20260506101307 23 169 12.9 20.9 0.00 0.08 0.00 95 999.8
20260506101206 23 155 12.9 20.9 0.00 0.08 0.00 95 999.7
20260506101104 23 165 11.3 17.7 0.00 0.08 0.00 95 999.7
20260506101004 23 186 9.7 17.7 0.00 0.08 0.00 95 999.6
20260506100903 23 166 11.3 17.7 0.00 0.08 0.00 95 999.5
20260506100803 23 168 12.9 17.7 0.00 0.08 0.00 95 999.6
20260506100702 23 178 11.3 17.7 0.00 0.08 0.00 95 999.5
20260506100602 23 158 11.3 17.7 0.00 0.08 0.00 95 999.4
20260506100503 23 155 12.9 19.3 0.00 0.08 0.00 95 999.4
20260506100402 23 190 12.9 22.5 0.00 0.08 0.00 95 999.5
20260506100303 23 168 12.9 22.5 0.00 0.08 0.00 95 999.4
20260506100202 23 161 12.9 22.5 0.00 0.08 0.00 95 999.5
20260506100004 23 159 9.7 22.5 0.00 0.08 0.00 95 999.5
20260506095903 23 169 9.7 24.1 0.00 0.08 0.00 95 999.5
20260506095802 23 161 11.3 24.1 0.00 0.08 0.00 95 999.5
20260506095703 23 172 12.9 24.1 0.00 0.08 0.00 95 999.6
20260506095603 23 179 16.1 24.1 0.00 0.08 0.00 95 999.5
20260506095504 23 166 17.7 24.1 0.00 0.08 0.00 95 999.6
20260506095402 23 178 17.7 24.1 0.00 0.08 0.00 95 999.6
20260506095305 24 155 14.5 24.1 0.00 0.08 0.00 95 999.6
20260506095203 23 173 12.9 24.1 0.00 0.08 0.00 95 999.5
20260506095102 23 185 14.5 24.1 0.00 0.08 0.00 95 999.5
20260506095004 24 171 14.5 24.1 0.00 0.08 0.00 95 999.5
20260506094903 24 149 14.5 24.1 0.00 0.08 0.00 95 999.6
20260506094802 24 171 14.5 24.1 0.00 0.08 0.00 95 999.5
20260506094701 24 168 14.5 24.1 0.00 0.08 0.00 95 999.5
20260506094603 24 179 14.5 24.1 0.00 0.08 0.00 95 999.5
20260506094503 24 189 14.5 24.1 0.00 0.08 0.00 95 999.5
20260506094402 24 165 11.3 22.5 0.00 0.08 0.00 95 999.5
20260506094303 24 151 9.7 22.5 0.00 0.08 0.00 95 999.5
20260506094202 24 178 11.3 22.5 0.00 0.08 0.00 95 999.5
20260506094102 24 183 12.9 22.5 0.00 0.08 0.00 95 999.4
20260506094003 24 179 14.5 22.5 0.00 0.08 0.00 95 999.4
20260506093903 24 166 16.1 22.5 0.00 0.08 0.00 95 999.4
20260506093803 24 183 14.5 22.5 0.00 0.08 0.00 95 999.4
20260506093703 24 193 14.5 20.9 0.00 0.08 0.00 95 999.4
20260506093603 24 175 14.5 20.9 0.00 0.08 0.00 95 999.3
20260506093504 24 155 14.5 20.9 0.00 0.08 0.00 95 999.4
20260506093402 24 165 12.9 20.9 0.00 0.08 0.00 95 999.4
20260506093304 24 165 12.9 20.9 0.00 0.08 0.00 95 999.4
20260506093202 24 182 11.3 20.9 0.00 0.08 0.00 95 999.3
20260506093102 24 169 12.9 20.9 0.00 0.08 0.00 95 999.4
20260506093002 24 175 12.9 22.5 0.00 0.08 0.00 95 999.4
20260506092903 24 155 11.3 22.5 0.00 0.08 0.00 95 999.4
20260506092802 24 179 11.3 22.5 0.00 0.08 0.00 95 999.3
20260506092702 24 166 11.3 25.7 0.00 0.08 0.00 95 999.3
20260506092604 24 175 12.9 25.7 0.00 0.08 0.00 95 999.2
20260506092503 24 154 14.5 25.7 0.00 0.08 0.00 95 999.2
20260506092402 24 186 12.9 25.7 0.00 0.08 0.00 95 999.2
20260506092305 24 166 12.9 25.7 0.00 0.08 0.00 95 999.2
20260506092203 24 161 16.1 25.7 0.00 0.08 0.00 95 999.2
20260506092102 24 169 16.1 25.7 0.00 0.08 0.00 95 999.3
20260506092003 24 193 14.5 25.7 0.00 0.08 0.00 95 999.1
20260506091903 24 188 14.5 25.7 0.00 0.08 0.00 95 999.3
20260506091802 24 169 14.5 25.7 0.00 0.08 0.00 95 999.3
20260506091702 24 180 12.9 20.9 0.00 0.08 0.00 95 999.2
20260506091602 24 159 11.3 19.3 0.00 0.08 0.00 95 999.2
20260506091503 24 155 11.3 19.3 0.00 0.08 0.00 95 999.3
20260506091402 24 178 11.3 19.3 0.00 0.08 0.00 95 999.3
20260506091302 24 173 11.3 19.3 0.00 0.08 0.00 95 999.3
20260506091203 24 169 11.3 19.3 0.00 0.08 0.00 95 999.3
20260506091103 24 169 11.3 19.3 0.00 0.08 0.00 95 999.2
20260506091002 24 161 11.3 19.3 0.00 0.08 0.00 95 999.3
20260506090904 24 168 12.9 19.3 0.00 0.08 0.00 95 999.2
20260506090803 24 155 12.9 19.3 0.00 0.08 0.00 95 999.2
20260506090702 24 162 12.9 19.3 0.00 0.08 0.00 95 999.2
20260506090603 24 154 12.9 19.3 0.00 0.08 0.00 95 999.2
20260506090504 24 148 12.9 19.3 0.00 0.08 0.00 95 999.2
20260506090402 24 178 12.9 20.9 0.00 0.08 0.00 95 999.2
20260506090302 24 157 12.9 20.9 0.00 0.08 0.00 95 999.2
20260506090203 24 172 12.9 20.9 0.00 0.08 0.00 95 999.2
20260506090004 24 162 14.5 20.9 0.00 0.08 0.00 95 999.2
20260506085902 24 162 14.5 20.9 0.00 0.08 0.00 95 999.2
20260506085803 24 173 14.5 20.9 0.00 0.08 0.00 95 999.2
20260506085701 24 186 14.5 20.9 0.00 0.08 0.00 95 999.2
20260506085602 24 169 14.5 20.9 0.00 0.08 0.00 95 999.2
20260506085504 24 183 14.5 20.9 0.00 0.08 0.00 95 999.1
20260506085402 24 168 14.5 20.9 0.00 0.08 0.00 95 999.2
20260506085301 24 151 14.5 20.9 0.00 0.08 0.00 95 999.2
20260506085203 24 151 14.5 20.9 0.00 0.08 0.00 95 999.2
20260506085103 24 169 14.5 20.9 0.00 0.08 0.00 95 999.3
20260506085002 24 169 14.5 20.9 0.00 0.08 0.00 95 999.3
20260506084902 24 159 12.9 17.7 0.00 0.08 0.00 95 999.4
20260506084803 24 179 12.9 17.7 0.00 0.08 0.00 95 999.4
20260506084702 24 173 11.3 20.9 0.00 0.08 0.00 95 999.4
20260506084602 24 172 9.7 20.9 0.00 0.08 0.00 95 999.5
20260506084503 24 164 9.7 20.9 0.00 0.08 0.00 95 999.5
20260506084403 24 192 11.3 20.9 0.00 0.08 0.00 95 999.5
20260506084302 24 162 11.3 20.9 0.00 0.08 0.00 95 999.5
20260506084202 24 185 11.3 20.9 0.00 0.08 0.00 95 999.4
20260506084102 24 166 11.3 20.9 0.00 0.08 0.00 95 999.4
20260506084002 24 168 11.3 20.9 0.00 0.08 0.00 95 999.4
20260506083903 24 186 12.9 20.9 0.00 0.08 0.00 95 999.4
20260506083803 24 179 12.9 20.9 0.00 0.08 0.00 95 999.4
20260506083702 24 161 12.9 17.7 0.00 0.08 0.00 95 999.4
20260506083602 24 192 11.3 17.7 0.00 0.08 0.00 95 999.5
20260506083503 24 169 9.7 17.7 0.00 0.08 0.00 95 999.5
20260506083403 24 164 9.7 17.7 0.00 0.08 0.00 95 999.5
20260506083302 24 162 11.3 17.7 0.00 0.08 0.00 95 999.5
20260506083202 24 185 11.3 17.7 0.00 0.08 0.00 95 999.6
20260506083103 24 175 11.3 19.3 0.00 0.08 0.00 95 999.6
20260506083002 24 162 12.9 19.3 0.00 0.08 0.00 95 999.5
20260506082902 24 176 12.9 19.3 0.00 0.08 0.00 95 999.4
20260506082804 24 182 11.3 19.3 0.00 0.08 0.00 95 999.4
20260506082704 24 169 9.7 19.3 0.00 0.08 0.00 95 999.4
20260506082602 24 172 9.7 19.3 0.00 0.08 0.00 95 999.5
20260506082503 24 173 11.3 19.3 0.00 0.08 0.00 95 999.4
20260506082403 24 155 9.7 19.3 0.00 0.08 0.00 95 999.4
20260506082304 24 172 11.3 19.3 0.00 0.08 0.00 95 999.4
20260506082202 24 165 12.9 19.3 0.00 0.08 0.00 95 999.5
20260506082103 24 162 11.3 17.7 0.00 0.08 0.00 95 999.5
20260506082003 24 159 9.7 17.7 0.00 0.08 0.00 95 999.5
20260506081902 24 161 11.3 17.7 0.00 0.08 0.00 95 999.4
20260506081802 24 154 11.3 17.7 0.00 0.10 0.00 95 999.5
20260506081703 24 164 11.3 17.7 0.00 0.10 0.00 95 999.5
20260506081602 24 161 9.7 17.7 0.00 0.10 0.00 95 999.5
20260506081503 24 165 9.7 17.7 0.00 0.10 0.00 95 999.4
20260506081403 24 175 11.3 17.7 0.00 0.10 0.00 95 999.4
20260506081302 24 154 11.3 17.7 0.00 0.10 0.00 95 999.5
20260506081201 24 164 9.7 16.1 0.00 0.10 0.00 95 999.6
20260506081103 24 179 11.3 16.1 0.00 0.10 0.00 95 999.5
20260506081004 24 164 9.7 16.1 0.00 0.10 0.00 95 999.5
20260506080902 24 166 9.7 16.1 0.00 0.10 0.00 95 999.6
20260506080802 24 159 11.3 16.1 0.00 0.10 0.00 95 999.6
20260506080703 24 149 9.7 16.1 0.00 0.10 0.00 94 999.6
20260506080601 24 172 9.7 16.1 0.00 0.10 0.00 94 999.6
20260506080500 24 164 9.7 16.1 0.00 0.10 0.00 94 999.7
20260506080358 24 168 9.7 16.1 0.00 0.10 0.00 94 999.8
20260506080257 24 165 9.7 16.1 0.00 0.10 0.00 94 999.7
20260506080155 24 161 9.7 16.1 0.00 0.10 0.00 94 999.8
20260506073452 24 200 8.0 16.1 0.00 0.10 0.00 94 1000.1
20260506073354 24 183 8.0 16.1 0.00 0.10 0.00 94 1000.0
20260506073252 24 197 9.7 16.1 0.00 0.10 0.00 94 1000.1
20260506073151 24 186 8.0 16.1 0.00 0.10 0.00 94 1000.1
20260506073050 24 185 8.0 16.1 0.00 0.10 0.00 94 1000.1
20260506072948 24 171 9.7 16.1 0.00 0.10 0.00 94 1000.2
20260506072847 24 196 11.3 17.7 0.00 0.10 0.00 94 1000.3
20260506072745 24 166 11.3 17.7 0.00 0.10 0.00 94 1000.3
20260506072644 24 176 9.7 17.7 0.00 0.10 0.00 94 1000.4
20260506072543 24 199 6.4 17.7 0.00 0.10 0.00 94 1000.3
20260506072441 24 185 6.4 17.7 0.00 0.10 0.00 94 1000.3
20260506072340 24 182 6.4 17.7 0.00 0.10 0.00 94 1000.3
20260506072238 24 182 6.4 17.7 0.00 0.10 0.00 94 1000.3
20260506072137 24 178 8.0 19.3 0.00 0.10 0.00 94 1000.3
20260506072035 24 189 9.7 19.3 0.00 0.10 0.00 94 1000.2
20260506071933 24 185 9.7 19.3 0.00 0.10 0.00 94 1000.3
20260506071832 24 178 8.0 19.3 0.00 0.10 0.00 94 1000.3
20260506071730 24 179 9.7 19.3 0.00 0.10 0.00 94 1000.3
20260506071631 24 165 9.7 19.3 0.00 0.10 0.00 94 1000.2
20260506071533 24 182 9.7 19.3 0.00 0.10 0.00 94 1000.4
20260506071431 24 164 9.7 19.3 0.00 0.10 0.00 94 1000.3
20260506071330 24 154 9.7 19.3 0.00 0.10 0.00 94 1000.2
20260506071228 24 186 9.7 19.3 0.00 0.10 0.00 94 1000.4
20260506071127 24 196 8.0 16.1 0.00 0.10 0.00 94 1000.3
20260506071025 24 176 8.0 14.5 0.00 0.10 0.00 94 1000.4
20260506070924 24 171 9.7 14.5 0.00 0.10 0.00 94 1000.3
20260506070822 24 195 9.7 16.1 0.00 0.10 0.00 94 1000.4
20260506070720 24 176 9.7 16.1 0.00 0.10 0.00 94 1000.4
20260506070619 24 189 9.7 16.1 0.00 0.10 0.00 94 1000.4
20260506070518 24 162 9.7 16.1 0.00 0.10 0.00 94 1000.4
20260506070416 24 188 9.7 16.1 0.00 0.10 0.00 94 1000.5
20260506070314 24 202 8.0 16.1 0.00 0.10 0.00 94 1000.5
20260506070213 24 168 8.0 16.1 0.00 0.10 0.00 94 1000.4
20260506070111 24 189 9.7 17.7 0.00 0.10 0.00 94 1000.5
20260506062451 24 171 11.3 17.7 0.00 0.10 0.00 93 1000.5
20260506062352 24 159 11.3 17.7 0.00 0.10 0.00 93 1000.6
20260506062252 24 180 11.3 17.7 0.00 0.10 0.00 93 1000.5
20260506062151 24 171 11.3 19.3 0.00 0.10 0.00 93 1000.5
20260506062053 24 185 9.7 19.3 0.00 0.10 0.00 93 1000.6
20260506061952 24 192 9.7 19.3 0.00 0.10 0.00 93 1000.6
20260506061852 24 172 9.7 19.3 0.00 0.10 0.00 93 1000.6
20260506061751 24 164 9.7 19.3 0.00 0.10 0.00 93 1000.6
20260506061652 24 185 11.3 19.3 0.00 0.10 0.00 93 1000.6
20260506061551 24 168 12.9 20.9 0.00 0.10 0.00 93 1000.5
20260506061451 24 186 12.9 20.9 0.00 0.10 0.00 93 1000.6
20260506061352 24 168 11.3 20.9 0.00 0.10 0.00 93 1000.6
20260506061251 24 165 11.3 20.9 0.00 0.10 0.00 93 1000.6
20260506061151 24 172 11.3 20.9 0.00 0.10 0.00 93 1000.5
20260506061051 24 179 11.3 20.9 0.00 0.10 0.00 93 1000.5
20260506060952 24 171 11.3 20.9 0.00 0.10 0.00 93 1000.5
20260506060851 24 169 12.9 20.9 0.00 0.10 0.00 93 1000.5
20260506060751 24 182 14.5 20.9 0.00 0.10 0.00 93 1000.5
20260506060653 24 172 14.5 20.9 0.00 0.10 0.00 93 1000.4
20260506060551 24 161 12.9 20.9 0.00 0.10 0.00 93 1000.5
20260506060451 24 172 9.7 19.3 0.00 0.10 0.00 93 1000.5
20260506060352 24 171 9.7 19.3 0.00 0.10 0.00 93 1000.4
20260506060252 24 164 9.7 19.3 0.00 0.10 0.00 93 1000.5
20260506060151 25 165 11.3 19.3 0.00 0.10 0.00 93 1000.4
20260506051350 25 173 14.5 24.1 0.00 0.13 0.00 92 1000.3
20260506051250 25 151 16.1 24.1 0.00 0.13 0.00 92 1000.3
20260506051152 25 173 16.1 24.1 0.00 0.13 0.00 92 1000.3
20260506051051 25 175 16.1 24.1 0.00 0.13 0.00 92 1000.4
20260506050949 25 171 16.1 24.1 0.00 0.13 0.00 91 1000.4
20260506050850 25 165 14.5 25.7 0.00 0.13 0.00 91 1000.3
20260506050751 25 179 16.1 25.7 0.00 0.13 0.00 91 1000.4
20260506050649 25 141 16.1 25.7 0.00 0.13 0.00 91 1000.5
20260506050548 25 166 14.5 25.7 0.00 0.13 0.00 91 1000.5
20260506050445 25 164 16.1 25.7 0.00 0.13 0.00 91 1000.5
20260506050344 25 172 14.5 25.7 0.00 0.13 0.00 91 1000.5
20260506050244 25 179 14.5 25.7 0.00 0.13 0.00 91 1000.4
20260506050142 25 161 14.5 25.7 0.00 0.13 0.00 91 1000.4
20260506045131 25 165 12.9 19.3 0.00 0.13 0.13 91 1000.5
20260506045031 25 164 9.7 19.3 0.00 0.13 0.13 91 1000.5
20260506044931 25 161 9.7 19.3 0.00 0.13 0.13 91 1000.5
20260506044833 25 182 9.7 19.3 0.00 0.13 0.13 91 1000.5
20260506044732 25 179 9.7 20.9 0.00 0.13 0.13 91 1000.5
20260506044631 25 192 11.3 20.9 0.00 0.13 0.13 91 1000.5
20260506044532 25 166 11.3 20.9 0.00 0.13 0.13 91 1000.6
20260506044433 25 178 11.3 22.5 0.00 0.13 0.13 91 1000.5
20260506044331 25 182 12.9 24.1 0.00 0.13 0.13 91 1000.4
20260506044231 25 165 14.5 24.1 0.00 0.13 0.13 91 1000.4
20260506044132 25 180 14.5 24.1 0.00 0.13 0.13 91 1000.5
20260506044030 25 183 16.1 24.1 0.00 0.13 0.13 91 1000.4
20260506043931 25 171 14.5 24.1 0.00 0.13 0.13 91 1000.4
20260506043830 25 161 12.9 24.1 0.00 0.13 0.13 91 1000.4
20260506043731 25 166 14.5 24.1 0.00 0.13 0.13 91 1000.4
20260506043631 25 164 12.9 24.1 0.00 0.13 0.13 91 1000.4
20260506043532 25 178 14.5 24.1 0.00 0.13 0.13 91 1000.4
20260506043432 25 192 12.9 24.1 0.00 0.13 0.13 91 1000.4
20260506043332 25 173 11.3 24.1 0.00 0.13 0.13 91 1000.3
20260506043232 25 180 12.9 24.1 0.00 0.13 0.13 90 1000.4
20260506043133 25 176 14.5 24.1 0.00 0.13 0.13 90 1000.5
20260506043031 25 164 14.5 24.1 0.00 0.13 0.13 90 1000.5
20260506042929 25 161 14.5 24.1 0.00 0.13 0.13 90 1000.5
20260506042828 25 169 12.9 24.1 0.00 0.13 0.13 90 1000.4
20260506042726 25 172 14.5 24.1 0.00 0.13 0.13 90 1000.4
20260506042624 25 179 16.1 24.1 0.00 0.13 0.13 90 1000.4
20260506042524 25 188 17.7 24.1 0.00 0.13 0.13 90 1000.3
20260506042422 25 154 14.5 24.1 0.00 0.13 0.13 90 1000.3
20260506042321 25 171 9.7 24.1 0.00 0.13 0.13 90 1000.2
20260506042220 25 165 12.9 24.1 0.00 0.13 0.13 90 1000.2
20260506042118 25 189 14.5 24.1 0.00 0.13 0.13 90 1000.3
20260506042016 25 172 16.1 24.1 0.00 0.13 0.13 90 1000.4
20260506041915 25 179 14.5 19.3 0.00 0.13 0.13 90 1000.3
20260506041813 25 158 11.3 19.3 0.00 0.13 0.13 90 1000.3
20260506041712 25 165 12.9 19.3 0.00 0.13 0.13 90 1000.4
20260506041610 25 157 9.7 19.3 0.00 0.13 0.13 90 1000.4
20260506041508 25 183 8.0 17.7 0.00 0.13 0.13 90 1000.4
20260506041407 25 172 8.0 17.7 0.00 0.13 0.13 90 1000.4
20260506041304 25 188 9.7 17.7 0.00 0.13 0.13 90 1000.5
20260506041203 25 172 11.3 19.3 0.00 0.13 0.13 90 1000.6
20260506041103 25 189 11.3 19.3 0.00 0.13 0.13 90 1000.7
20260506041003 25 158 11.3 19.3 0.00 0.13 0.13 90 1000.6
20260506040902 25 196 9.7 19.3 0.00 0.13 0.13 90 1000.7
20260506040803 25 202 8.0 19.3 0.00 0.13 0.13 90 1000.5
20260506040702 25 190 8.0 19.3 0.00 0.13 0.13 90 1000.5
20260506040600 25 179 9.7 19.3 0.00 0.13 0.13 90 1000.6
20260506040455 25 200 9.7 19.3 0.00 0.13 0.13 90 1000.6
20260506040354 25 183 11.3 19.3 0.00 0.13 0.13 90 1000.5
20260506040252 25 209 11.3 22.5 0.00 0.13 0.13 90 1000.5
20260506040151 25 192 11.3 22.5 0.00 0.13 0.13 90 1000.4
20260506040050 25 192 11.3 22.5 0.00 0.13 0.13 90 1000.4
20260506035948 25 188 11.3 22.5 0.00 0.13 0.13 90 1000.3
20260506035849 25 180 12.9 22.5 0.00 0.13 0.13 90 1000.3
20260506035748 25 190 12.9 22.5 0.00 0.13 0.13 90 1000.3
20260506035648 25 186 11.3 22.5 0.00 0.13 0.13 90 1000.4
20260506035548 25 169 11.3 22.5 0.00 0.13 0.13 90 1000.4
20260506035450 25 197 12.9 22.5 0.00 0.13 0.13 90 1000.4
20260506035348 25 188 12.9 22.5 0.00 0.13 0.13 90 1000.4
20260506035247 25 192 11.3 19.3 0.00 0.13 0.13 90 1000.5
20260506035149 25 178 12.9 19.3 0.00 0.13 0.13 90 1000.4
20260506035048 25 159 11.3 19.3 0.00 0.13 0.13 90 1000.4
20260506034948 25 196 8.0 19.3 0.00 0.13 0.13 90 1000.3
20260506034848 25 180 8.0 19.3 0.00 0.13 0.13 90 1000.3
20260506034749 25 166 9.7 19.3 0.00 0.13 0.13 90 1000.2
20260506034649 25 190 11.3 19.3 0.00 0.13 0.13 90 1000.2
20260506034548 25 203 12.9 19.3 0.00 0.13 0.13 90 1000.2
20260506034449 25 209 11.3 20.9 0.00 0.13 0.13 90 1000.3
20260506034348 25 178 8.0 20.9 0.00 0.13 0.13 90 1000.2
20260506034248 25 186 9.7 20.9 0.00 0.13 0.13 90 1000.2
20260506034147 25 182 11.3 20.9 0.00 0.13 0.13 90 1000.2
20260506034049 25 180 12.9 20.9 0.00 0.13 0.13 89 1000.2
20260506033947 25 180 14.5 20.9 0.00 0.13 0.13 89 1000.1
20260506033848 25 186 14.5 20.9 0.00 0.13 0.13 89 1000.1
20260506033748 25 175 12.9 20.9 0.00 0.15 0.13 89 1000.2
20260506033648 25 193 11.3 20.9 0.00 0.15 0.13 89 1000.1
20260506033547 25 200 9.7 20.9 0.00 0.15 0.13 89 1000.1
20260506033447 25 193 9.7 20.9 0.00 0.15 0.13 89 1000.1
20260506033349 25 188 12.9 20.9 0.00 0.15 0.13 89 1000.0
20260506033247 25 186 12.9 20.9 0.00 0.15 0.13 89 1000.0
20260506033147 25 193 11.3 20.9 0.00 0.15 0.13 89 1000.0
20260506033049 25 207 12.9 20.9 0.00 0.15 0.13 89 1000.0
20260506032947 25 179 12.9 20.9 0.00 0.15 0.13 89 1000.0
20260506032848 25 180 12.9 20.9 0.00 0.15 0.13 89 1000.0
20260506032747 25 213 12.9 20.9 0.00 0.15 0.13 89 1000.0
20260506032649 25 207 11.3 22.5 0.00 0.15 0.13 89 999.9
20260506032547 25 182 11.3 22.5 0.00 0.15 0.13 89 1000.0
20260506032448 25 188 12.9 24.1 0.00 0.15 0.13 89 1000.0
20260506032348 25 180 14.5 24.1 0.00 0.15 0.13 89 1000.0
20260506032248 25 172 12.9 24.1 0.00 0.15 0.13 89 1000.0
20260506032149 25 172 12.9 24.1 0.00 0.15 0.13 89 1000.1
20260506032048 25 172 12.9 24.1 0.00 0.15 0.13 89 1000.0
20260506031948 25 180 12.9 24.1 0.00 0.15 0.13 89 1000.1
20260506031847 25 195 14.5 24.1 0.00 0.15 0.13 89 1000.1
20260506031747 25 190 14.5 24.1 0.00 0.15 0.13 89 1000.1
20260506031649 25 186 14.5 24.1 0.00 0.15 0.13 89 1000.2
20260506031547 25 180 11.3 24.1 0.00 0.15 0.13 89 1000.1
20260506031447 25 188 9.7 19.3 0.00 0.15 0.13 89 1000.1
20260506031347 25 182 12.9 19.3 0.00 0.15 0.13 89 1000.2
20260506031248 25 179 11.3 19.3 0.00 0.15 0.13 89 1000.1
20260506031147 25 195 11.3 19.3 0.00 0.15 0.13 88 1000.0
20260506031047 25 193 11.3 19.3 0.00 0.15 0.13 88 1000.0
20260506030949 25 192 11.3 19.3 0.00 0.15 0.13 88 1000.0
20260506030847 25 189 11.3 19.3 0.00 0.15 0.13 88 1000.0
20260506030747 25 196 11.3 19.3 0.00 0.15 0.13 88 999.9
20260506030649 25 188 9.7 19.3 0.00 0.15 0.13 88 1000.0
20260506030547 25 197 12.9 19.3 0.00 0.15 0.13 88 999.9
20260506030447 25 182 12.9 19.3 0.00 0.15 0.13 88 999.9
20260506030347 25 188 11.3 22.5 0.00 0.15 0.13 88 999.9
20260506030248 25 165 12.9 22.5 0.00 0.15 0.13 88 999.8
20260506030147 25 178 11.3 22.5 0.00 0.15 0.13 88 999.7
20260506030047 25 176 11.3 24.1 0.00 0.15 0.13 88 999.8
20260506025948 25 180 11.3 24.1 0.00 0.15 0.13 88 999.8
20260506025847 25 197 11.3 24.1 0.00 0.15 0.13 88 999.9
20260506025747 25 179 11.3 24.1 0.00 0.15 0.13 88 999.8
20260506025646 25 183 11.3 24.1 0.00 0.15 0.13 88 999.8
20260506025548 25 189 12.9 24.1 0.00 0.15 0.13 88 999.7
20260506025447 25 193 14.5 24.1 0.00 0.15 0.13 88 999.8
20260506025346 25 180 14.5 24.1 0.00 0.15 0.13 88 999.7
20260506025247 25 173 14.5 24.1 0.00 0.15 0.13 88 999.7
20260506025148 25 166 12.9 24.1 0.00 0.15 0.13 88 999.7
20260506025046 25 185 12.9 20.9 0.00 0.15 0.13 88 999.7
20260506024947 25 176 14.5 20.9 0.00 0.15 0.13 88 999.7
20260506024848 25 192 14.5 20.9 0.00 0.15 0.13 88 999.7
20260506024746 25 188 12.9 20.9 0.00 0.15 0.13 88 999.6
20260506024646 25 195 12.9 19.3 0.00 0.15 0.13 88 999.6
20260506024547 25 196 12.9 19.3 0.00 0.15 0.13 88 999.7
20260506024446 25 213 12.9 19.3 0.00 0.15 0.13 88 999.6
20260506024346 25 196 11.3 19.3 0.00 0.15 0.13 88 999.7
20260506024246 25 180 11.3 19.3 0.00 0.15 0.13 87 999.7
20260506024147 25 186 11.3 19.3 0.00 0.15 0.13 87 999.7
20260506024046 25 196 9.7 19.3 0.00 0.15 0.13 87 999.7
20260506023947 25 192 9.7 20.9 0.00 0.15 0.13 87 999.6
20260506023848 25 182 11.3 20.9 0.00 0.15 0.13 87 999.6
20260506023746 25 179 11.3 20.9 0.00 0.15 0.13 87 999.6
20260506023646 25 182 12.9 20.9 0.00 0.15 0.13 87 999.5
20260506023546 25 164 12.9 20.9 0.00 0.15 0.13 87 999.5
20260506023447 25 151 12.9 20.9 0.00 0.15 0.13 87 999.5
20260506023346 25 188 12.9 20.9 0.00 0.15 0.13 87 999.4
20260506023246 25 189 11.3 20.9 0.00 0.15 0.13 87 999.3
20260506023147 25 186 14.5 20.9 0.00 0.15 0.13 87 999.3
20260506023046 25 159 14.5 20.9 0.00 0.15 0.13 87 999.2
20260506022946 25 173 11.3 20.9 0.00 0.15 0.13 87 999.2
20260506022846 25 173 12.9 20.9 0.00 0.15 0.13 87 999.2
20260506022747 25 169 12.9 20.9 0.00 0.15 0.13 87 999.2
20260506022646 25 206 12.9 20.9 0.00 0.15 0.13 87 999.1
20260506022546 25 161 14.5 22.5 0.00 0.15 0.13 87 999.1
20260506022447 25 178 12.9 22.5 0.00 0.15 0.13 87 999.1
20260506022345 25 175 12.9 22.5 0.00 0.15 0.13 86 999.1
20260506022246 25 197 11.3 22.5 0.00 0.15 0.13 86 999.1
20260506022147 25 193 12.9 22.5 0.00 0.15 0.13 86 999.0
20260506022047 25 166 12.9 22.5 0.00 0.15 0.13 86 999.1
20260506021946 25 158 11.3 22.5 0.00 0.15 0.13 86 999.1
20260506021845 25 180 12.9 22.5 0.00 0.15 0.13 86 999.0
20260506021747 25 172 12.9 22.5 0.00 0.15 0.13 86 999.0
20260506021646 26 186 11.3 22.5 0.00 0.15 0.13 86 999.0
20260506021547 26 149 14.5 22.5 0.00 0.15 0.13 86 999.0
20260506021447 25 188 16.1 22.5 0.00 0.15 0.13 86 999.0
20260506021346 25 166 14.5 22.5 0.00 0.15 0.13 86 999.0
20260506021246 25 166 12.9 22.5 0.00 0.15 0.13 86 999.1
20260506021145 25 152 14.5 24.1 0.00 0.15 0.13 86 999.0
20260506021047 25 196 12.9 24.1 0.00 0.15 0.13 86 999.1
20260506020946 25 165 9.7 24.1 0.00 0.15 0.13 86 999.1
20260506020846 25 166 9.7 30.6 0.00 0.15 0.13 86 999.0
20260506020745 26 171 11.3 30.6 0.00 0.15 0.13 86 999.0
20260506020647 25 161 9.7 30.6 0.00 0.15 0.13 86 998.9
20260506020545 25 206 9.7 30.6 0.00 0.15 0.13 86 998.9
20260506020446 25 193 11.3 30.6 0.00 0.15 0.13 86 998.9
20260506020346 25 199 12.9 30.6 0.00 0.15 0.13 86 998.9
20260506020246 25 173 12.9 30.6 0.00 0.15 0.13 86 998.9
20260506020145 25 183 14.5 30.6 0.00 0.15 0.13 86 998.9
20260506020046 25 179 17.7 30.6 0.00 0.15 0.13 86 998.8
20260506015945 25 180 17.7 30.6 0.00 0.15 0.13 86 998.9
20260506015846 25 189 17.7 27.4 0.00 0.15 0.13 86 998.9
20260506015746 25 195 16.1 25.7 0.00 0.15 0.13 86 998.8
20260506015646 25 189 12.9 25.7 0.00 0.15 0.13 86 998.8
20260506015545 25 210 11.3 25.7 0.00 0.15 0.13 86 998.7
20260506015445 25 168 14.5 25.7 0.00 0.15 0.13 86 998.7
20260506015347 25 176 16.1 25.7 0.00 0.15 0.13 86 998.7
20260506015245 25 182 14.5 25.7 0.00 0.15 0.13 86 998.8
20260506015145 25 164 11.3 19.3 0.00 0.15 0.13 86 998.7
20260506015045 25 154 12.9 19.3 0.00 0.15 0.13 86 998.7
20260506014946 25 176 12.9 19.3 0.00 0.15 0.13 86 998.7
20260506014846 25 190 12.9 19.3 0.00 0.15 0.13 86 998.6
20260506014745 26 190 12.9 19.3 0.00 0.15 0.13 86 998.6
20260506014646 26 175 12.9 19.3 0.00 0.15 0.13 86 998.7
20260506014545 26 182 11.3 19.3 0.00 0.15 0.13 86 998.6
20260506014445 26 185 11.3 19.3 0.00 0.15 0.13 86 998.6
20260506014345 26 185 12.9 19.3 0.00 0.15 0.13 86 998.6
20260506014246 26 180 11.3 17.7 0.00 0.15 0.13 86 998.6
20260506014145 26 193 11.3 17.7 0.00 0.15 0.13 86 998.6
20260506014046 26 214 11.3 17.7 0.00 0.15 0.13 86 998.6
20260506013946 26 197 11.3 17.7 0.00 0.15 0.13 86 998.6
20260506013845 26 221 11.3 17.7 0.00 0.15 0.13 86 998.6
20260506013745 26 200 11.3 17.7 0.00 0.18 0.13 86 998.6
20260506013644 26 204 9.7 17.7 0.00 0.18 0.13 85 998.6
20260506013546 26 200 11.3 19.3 0.00 0.18 0.13 85 998.6
20260506013445 26 200 11.3 19.3 0.00 0.18 0.13 85 998.6
20260506013345 26 213 9.7 19.3 0.00 0.18 0.13 85 998.7
20260506013246 26 223 8.0 20.9 0.00 0.18 0.13 85 998.6
20260506013145 26 216 8.0 20.9 0.00 0.18 0.13 85 998.6
20260506013045 26 202 9.7 20.9 0.00 0.18 0.13 85 998.6
20260506012947 26 193 9.7 20.9 0.00 0.18 0.13 85 998.6
20260506012846 26 196 9.7 20.9 0.00 0.18 0.13 85 998.6
20260506012745 26 179 12.9 20.9 0.00 0.18 0.13 85 998.7
20260506012644 26 213 12.9 20.9 0.00 0.18 0.13 85 998.6
20260506012546 26 220 11.3 20.9 0.00 0.18 0.13 85 998.6
20260506012445 26 189 11.3 20.9 0.00 0.18 0.13 85 998.6
20260506012344 26 179 12.9 20.9 0.00 0.18 0.13 85 998.5
20260506012244 26 182 12.9 20.9 0.00 0.18 0.13 85 998.5
20260506012146 26 195 12.9 20.9 0.00 0.18 0.13 85 998.4
20260506012045 26 195 11.3 20.9 0.00 0.18 0.13 85 998.4
20260506011944 26 202 12.9 20.9 0.00 0.18 0.13 85 998.4
20260506011846 26 190 12.9 20.9 0.00 0.18 0.13 85 998.5
20260506011745 26 169 12.9 19.3 0.00 0.18 0.13 85 998.3
20260506011644 26 182 11.3 20.9 0.00 0.18 0.13 85 998.4
20260506011544 26 186 9.7 20.9 0.00 0.18 0.13 85 998.4
20260506011445 26 196 9.7 20.9 0.00 0.18 0.13 85 998.3
20260506011345 26 179 9.7 20.9 0.00 0.18 0.13 85 998.2
20260506011245 26 179 9.7 20.9 0.00 0.18 0.13 85 998.2
20260506011145 26 180 11.3 20.9 0.00 0.18 0.13 85 998.3
20260506011045 26 199 9.7 20.9 0.00 0.18 0.13 85 998.3
20260506010944 26 197 9.7 20.9 0.00 0.18 0.13 85 998.3
20260506010844 26 185 12.9 20.9 0.00 0.18 0.13 85 998.3
20260506010745 26 168 14.5 20.9 0.00 0.18 0.13 85 998.3
20260506010644 26 195 14.5 20.9 0.00 0.18 0.13 84 998.3
20260506010544 26 158 14.5 20.9 0.00 0.18 0.13 84 998.3
20260506010444 26 188 12.9 19.3 0.00 0.18 0.13 84 998.3
20260506010344 26 190 11.3 17.7 0.00 0.18 0.13 84 998.2
20260506010244 26 209 12.9 17.7 0.00 0.18 0.13 84 998.2
20260506010145 26 196 11.3 20.9 0.00 0.18 0.13 84 998.2
20260506010046 26 195 9.7 20.9 0.00 0.18 0.13 84 998.2
20260506005944 26 188 11.3 20.9 0.00 0.18 0.13 84 998.2
20260506005844 26 182 12.9 20.9 0.00 0.18 0.13 84 998.3
20260506005745 26 185 11.3 20.9 0.00 0.18 0.13 84 998.2
20260506005644 26 199 11.3 20.9 0.00 0.18 0.13 84 998.3
20260506005544 26 185 12.9 20.9 0.00 0.18 0.13 84 998.1
20260506005445 26 176 11.3 25.7 0.00 0.18 0.13 84 998.1
20260506005344 26 193 12.9 25.7 0.00 0.18 0.13 84 998.1
20260506005244 26 183 12.9 25.7 0.00 0.18 0.13 84 998.1
20260506005144 26 179 12.9 25.7 0.00 0.18 0.13 84 998.1
20260506005045 26 178 14.5 25.7 0.00 0.18 0.13 84 998.1
20260506004943 26 180 14.5 25.7 0.00 0.18 0.13 84 998.1
20260506004844 26 188 14.5 25.7 0.00 0.18 0.13 84 998.0
20260506004746 26 180 12.9 25.7 0.00 0.18 0.13 84 998.1
20260506004645 26 176 14.5 25.7 0.00 0.18 0.13 84 998.1
20260506004544 26 197 16.1 25.7 0.00 0.18 0.13 84 998.2
20260506004445 26 202 12.9 22.5 0.00 0.18 0.13 84 998.1
20260506004345 26 175 11.3 17.7 0.00 0.18 0.13 84 998.2
20260506004244 26 189 11.3 19.3 0.00 0.18 0.13 84 998.1
20260506004143 26 185 11.3 19.3 0.00 0.18 0.13 84 998.1
20260506004044 26 180 9.7 19.3 0.00 0.18 0.13 84 998.1
20260506003944 26 193 9.7 22.5 0.00 0.18 0.13 84 998.1
20260506003844 26 176 9.7 22.5 0.00 0.18 0.13 84 998.0
20260506003744 26 199 8.0 22.5 0.00 0.18 0.13 84 998.0
20260506003644 26 193 8.0 24.1 0.00 0.18 0.13 84 998.0
20260506003543 26 189 9.7 24.1 0.00 0.18 0.13 84 997.9
20260506003443 26 183 11.3 24.1 0.00 0.18 0.13 84 997.9
20260506003341 26 217 12.9 24.1 0.00 0.18 0.13 84 998.0
20260506003240 26 182 12.9 24.1 0.00 0.18 0.13 84 998.0
20260506003138 26 178 14.5 24.1 0.00 0.18 0.13 83 998.0
20260506003038 26 192 14.5 24.1 0.00 0.18 0.13 84 998.0
20260506002934 26 171 12.9 24.1 0.00 0.18 0.13 83 998.0
20260506002834 26 165 14.5 24.1 0.00 0.18 0.13 83 998.0
20260506002731 26 180 16.1 24.1 0.00 0.18 0.13 83 998.0
20260506002631 26 180 16.1 24.1 0.00 0.18 0.13 83 998.0
20260506002532 26 185 16.1 24.1 0.00 0.18 0.13 83 998.1
20260506002431 26 176 14.5 24.1 0.00 0.18 0.13 83 998.1
20260506002331 26 178 9.7 24.1 0.00 0.18 0.13 84 998.1
20260506002231 26 189 11.3 24.1 0.00 0.18 0.13 84 998.0
20260506002132 26 202 12.9 24.1 0.00 0.18 0.13 83 998.1
20260506002031 26 190 11.3 24.1 0.00 0.18 0.13 83 998.1
20260506001931 26 183 12.9 24.1 0.00 0.18 0.13 83 998.1
20260506001832 26 220 11.3 24.1 0.00 0.18 0.13 83 998.1
20260506001731 26 197 9.7 24.1 0.00 0.18 0.13 83 998.0
20260506001630 26 171 11.3 25.7 0.00 0.18 0.13 83 998.1
20260506001532 26 188 14.5 25.7 0.00 0.18 0.13 83 998.2
20260506001432 26 183 12.9 29.0 0.00 0.18 0.13 83 998.2
20260506001331 26 162 9.7 29.0 0.00 0.18 0.13 83 998.0
20260506001231 26 171 9.7 29.0 0.00 0.18 0.13 83 998.0
20260506001132 26 196 11.3 29.0 0.00 0.18 0.13 83 998.1
20260506001032 26 185 14.5 29.0 0.00 0.18 0.13 83 998.0
20260506000931 26 164 12.9 29.0 0.00 0.18 0.13 83 998.1
20260506000832 26 182 14.5 29.0 0.00 0.18 0.13 83 998.1
20260506000731 26 179 17.7 29.0 0.00 0.18 0.13 83 998.1
20260506000631 26 183 17.7 29.0 0.00 0.18 0.13 83 998.0
20260506000532 26 193 17.7 29.0 0.00 0.18 0.13 83 998.0
20260506000432 26 165 16.1 29.0 0.00 0.18 0.13 83 998.0
20260506000331 26 180 12.9 29.0 0.00 0.18 0.13 83 997.9
20260506000231 26 175 16.1 29.0 0.00 0.18 0.13 83 997.9
20260506000133 27 189 14.5 29.0 0.00 0.18 0.13 83 998.0
20260506000032 26 192 11.3 27.4 0.00 0.18 0.13 83 997.8
20260505235931 26 185 16.1 27.4 0.00 0.18 0.13 83 997.8
20260505235832 27 188 19.3 27.4 0.00 0.18 0.13 83 997.8
20260505235733 27 192 19.3 29.0 0.00 0.18 0.13 83 998.0
20260505235631 27 188 14.5 29.0 0.00 0.18 0.13 83 997.7
20260505235531 27 188 12.9 29.0 0.00 0.18 0.13 83 997.8
20260505235431 27 189 12.9 30.6 0.00 0.18 0.13 83 997.8
20260505235331 27 188 12.9 30.6 0.00 0.18 0.13 83 997.9
20260505235230 27 176 12.9 30.6 0.00 0.18 0.13 83 997.8
20260505235132 27 214 14.5 30.6 0.00 0.18 0.13 82 997.8
20260505235031 27 207 16.1 30.6 0.00 0.20 0.13 82 997.9
20260505234930 27 169 20.9 30.6 0.00 0.20 0.13 82 998.0
20260505234828 27 173 19.3 30.6 0.00 0.20 0.13 82 997.9
20260505234727 27 173 19.3 30.6 0.00 0.20 0.13 82 998.0
20260505234626 27 188 19.3 30.6 0.00 0.20 0.13 82 998.0
20260505234524 27 188 17.7 30.6 0.00 0.20 0.13 82 998.0
20260505234423 27 190 17.7 30.6 0.00 0.20 0.13 82 998.0
20260505234321 27 196 19.3 30.6 0.00 0.20 0.13 82 998.0
20260505234220 27 172 19.3 30.6 0.00 0.20 0.13 82 998.0
20260505234118 27 175 19.3 30.6 0.00 0.20 0.13 82 998.0
20260505234015 27 169 17.7 30.6 0.00 0.20 0.13 81 998.0
20260505233914 27 189 17.7 30.6 0.00 0.20 0.13 81 998.0
20260505233813 27 175 17.7 30.6 0.00 0.20 0.13 81 998.0
20260505233712 27 155 16.1 30.6 0.00 0.20 0.13 81 997.8
20260505233610 27 176 17.7 30.6 0.00 0.20 0.13 81 997.9
20260505233509 27 176 19.3 30.6 0.00 0.20 0.13 81 997.9
20260505233407 27 212 19.3 27.4 0.00 0.20 0.13 81 997.9
20260505233306 27 237 20.9 27.4 0.00 0.20 0.13 81 997.9
20260505233204 27 0 16.1 24.1 0.00 0.20 0.13 81 997.8
20260505233103 27 0 16.1 25.7 0.00 0.20 0.13 81 997.8
20260505233003 27 0 16.1 25.7 0.00 0.20 0.13 81 997.8
20260505232902 27 0 16.1 25.7 0.00 0.20 0.13 81 997.7
20260505232803 27 0 14.5 25.7 0.00 0.20 0.13 81 997.8
20260505232702 27 0 14.5 25.7 0.00 0.20 0.13 81 997.7
20260505232602 27 0 14.5 25.7 0.00 0.20 0.13 80 997.6
20260505232502 27 0 14.5 25.7 0.00 0.20 0.13 80 997.7
20260505232403 27 0 12.9 25.7 0.00 0.20 0.13 80 997.7
20260505232305 27 0 14.5 25.7 0.00 0.20 0.13 80 997.7
20260505232203 27 0 16.1 25.7 0.00 0.20 0.13 80 997.6
20260505232103 27 0 17.7 25.7 0.00 0.20 0.13 80 997.6
20260505232003 27 0 17.7 25.7 0.00 0.20 0.13 80 997.7
20260505231900 27 0 14.5 20.9 0.00 0.20 0.13 80 997.6
20260505231755 27 0 11.3 24.1 0.00 0.20 0.13 80 997.7
20260505231655 27 0 12.9 24.1 0.00 0.20 0.13 80 997.6
20260505231550 27 0 12.9 27.4 0.00 0.20 0.13 80 997.7
20260505231450 27 0 9.7 27.4 0.00 0.20 0.13 80 997.7
20260505231347 27 0 9.7 27.4 0.00 0.20 0.13 80 997.7
20260505231246 27 0 11.3 27.4 0.00 0.20 0.13 80 997.7
20260505231144 27 0 12.9 27.4 0.00 0.20 0.13 80 997.8
20260505231043 27 0 12.9 27.4 0.00 0.20 0.13 80 997.7
20260505230942 27 0 14.5 27.4 0.00 0.20 0.13 80 997.6
20260505230841 27 0 14.5 27.4 0.00 0.20 0.13 80 997.8
20260505230742 27 0 17.7 27.4 0.00 0.20 0.13 80 997.7
20260505230643 27 0 17.7 27.4 0.00 0.20 0.13 80 997.7
20260505230541 27 0 12.9 22.5 0.00 0.20 0.13 80 997.7
20260505230442 27 0 9.7 22.5 0.00 0.20 0.13 80 997.7
20260505230341 27 0 12.9 22.5 0.00 0.20 0.13 80 997.7
20260505230241 27 0 12.9 22.5 0.00 0.20 0.13 80 997.7
20260505230141 27 0 8.0 22.5 0.00 0.20 0.13 81 997.7
20260505230042 27 0 8.0 22.5 0.00 0.20 0.13 81 997.7
20260505225942 27 0 8.0 22.5 0.00 0.20 0.13 81 997.7
20260505225841 27 0 9.7 22.5 0.00 0.20 0.13 81 997.7
20260505225742 27 0 11.3 22.5 0.00 0.20 0.13 81 997.8
20260505225642 27 0 12.9 22.5 0.00 0.20 0.13 81 997.7
20260505225542 27 0 14.5 22.5 0.00 0.20 0.13 81 997.8
20260505225441 27 0 12.9 22.5 0.00 0.20 0.13 81 997.8
20260505225341 27 0 12.9 22.5 0.00 0.20 0.13 81 997.8
20260505225242 27 0 14.5 22.5 0.00 0.20 0.13 81 997.8
20260505225141 27 183 12.9 24.1 0.00 0.20 0.13 81 998.0
20260505225041 27 188 12.9 29.0 0.00 0.20 0.13 81 997.9
20260505224942 27 203 14.5 29.0 0.00 0.20 0.13 81 998.0
20260505224841 27 185 11.3 29.0 0.00 0.20 0.13 81 997.9
20260505224741 27 188 9.7 29.0 0.00 0.20 0.13 81 998.0
20260505224641 27 230 12.9 29.0 0.00 0.20 0.13 81 998.0
20260505224543 27 172 14.5 29.0 0.00 0.20 0.13 80 998.0
20260505224441 27 171 12.9 29.0 0.00 0.20 0.13 80 998.0
20260505224341 27 202 12.9 29.0 0.00 0.20 0.13 80 997.9
20260505224243 27 197 16.1 29.0 0.00 0.20 0.13 80 997.9
20260505224142 27 188 17.7 29.0 0.00 0.20 0.13 80 998.0
20260505224041 27 169 16.1 27.4 0.00 0.20 0.13 80 997.9
20260505223941 27 185 16.1 27.4 0.00 0.20 0.13 80 998.0
20260505223842 27 203 17.7 27.4 0.00 0.20 0.13 80 997.9
20260505223742 27 0 16.1 27.4 0.00 0.20 0.13 80 997.9
20260505223641 27 0 17.7 27.4 0.00 0.20 0.13 80 997.9
20260505223542 27 0 16.1 27.4 0.00 0.20 0.13 80 997.9
20260505223441 27 0 12.9 25.7 0.00 0.20 0.13 80 997.8
20260505223341 27 0 11.3 25.7 0.00 0.20 0.13 80 997.8
20260505223242 27 0 11.3 27.4 0.00 0.20 0.13 79 997.7
20260505223141 27 0 11.3 27.4 0.00 0.20 0.13 79 997.7
20260505223041 27 0 9.7 27.4 0.00 0.20 0.13 79 997.7
20260505222940 27 0 9.7 27.4 0.00 0.20 0.13 79 997.8
20260505222842 27 0 11.3 27.4 0.00 0.20 0.13 79 997.7
20260505222740 27 0 12.9 27.4 0.00 0.20 0.13 79 997.8
20260505222641 27 0 14.5 27.4 0.00 0.20 0.13 79 997.8
20260505222540 27 0 14.5 27.4 0.00 0.20 0.13 79 997.8
20260505222441 28 0 16.1 27.4 0.00 0.20 0.13 79 997.9
20260505222340 28 0 17.7 27.4 0.00 0.20 0.13 79 997.9
20260505222242 28 0 17.7 27.4 0.00 0.20 0.13 79 998.0
20260505222142 28 0 17.7 27.4 0.00 0.20 0.13 79 998.0
20260505222040 28 0 16.1 27.4 0.00 0.20 0.13 79 998.0
20260505221941 28 0 17.7 27.4 0.00 0.20 0.13 79 998.0
20260505221840 28 0 17.7 27.4 0.00 0.20 0.13 79 998.0
20260505221741 28 0 16.1 25.7 0.00 0.20 0.13 79 997.9
20260505221640 28 0 11.3 25.7 0.00 0.20 0.13 80 997.9
20260505221540 28 0 9.7 22.5 0.00 0.20 0.13 79 997.9
20260505221442 28 0 12.9 22.5 0.00 0.20 0.13 79 997.9
20260505221341 28 0 11.3 24.1 0.00 0.20 0.13 80 998.0
20260505221240 28 0 9.7 24.1 0.00 0.20 0.13 80 998.0
20260505221142 28 0 11.3 24.1 0.00 0.23 0.13 80 998.0
20260505221040 28 0 11.3 24.1 0.00 0.23 0.13 79 997.9
20260505220941 28 0 11.3 24.1 0.00 0.23 0.13 79 997.9
20260505220840 28 0 9.7 24.1 0.00 0.23 0.13 79 997.9
20260505220742 28 0 9.7 24.1 0.00 0.23 0.13 79 997.9
20260505220640 28 0 11.3 25.7 0.00 0.23 0.13 79 998.0
20260505220540 28 0 14.5 25.7 0.00 0.23 0.13 79 998.0
20260505220442 28 0 11.3 25.7 0.00 0.23 0.13 79 998.0
20260505220340 28 0 9.7 25.7 0.00 0.23 0.13 80 998.1
20260505220240 28 0 9.7 25.7 0.00 0.23 0.13 79 998.0
20260505220140 28 0 11.3 25.7 0.00 0.23 0.13 80 998.1
20260505220042 28 0 17.7 25.7 0.00 0.23 0.13 79 998.1
20260505215941 28 0 17.7 25.7 0.00 0.23 0.13 79 998.1
20260505215840 28 0 17.7 25.7 0.00 0.23 0.13 79 998.2
20260505215741 28 0 14.5 25.7 0.00 0.23 0.13 79 998.1
20260505215640 28 0 12.9 25.7 0.00 0.23 0.13 79 998.1
20260505215540 28 0 12.9 25.7 0.00 0.23 0.13 79 998.1
20260505215440 28 0 16.1 25.7 0.00 0.23 0.13 79 998.1
20260505215341 28 0 17.7 25.7 0.00 0.23 0.13 79 998.0
20260505215240 28 0 17.7 25.7 0.00 0.23 0.13 79 998.0
20260505215141 28 0 11.3 25.7 0.00 0.23 0.13 79 998.1
20260505215041 28 0 11.3 25.7 0.00 0.23 0.13 79 998.0
20260505214941 28 0 11.3 27.4 0.00 0.23 0.13 79 998.2
20260505214841 28 0 11.3 27.4 0.00 0.23 0.13 79 998.1
20260505214741 28 0 11.3 27.4 0.00 0.23 0.13 79 998.2
20260505214641 28 0 11.3 27.4 0.00 0.23 0.13 79 998.1
20260505214540 28 0 12.9 27.4 0.00 0.23 0.13 79 998.2
20260505214439 28 0 14.5 27.4 0.00 0.23 0.13 79 998.2
20260505214341 28 0 16.1 27.4 0.00 0.23 0.13 79 998.2
20260505214240 28 0 17.7 27.4 0.00 0.23 0.13 79 998.3
20260505214139 28 0 17.7 27.4 0.00 0.23 0.13 79 998.4
20260505214039 28 0 14.5 27.4 0.00 0.23 0.13 79 998.4
20260505213940 28 0 9.7 25.7 0.00 0.23 0.13 80 998.4
20260505213840 28 0 9.7 32.2 0.00 0.23 0.13 79 998.4
20260505213739 28 0 8.0 32.2 0.00 0.23 0.13 80 998.4
20260505213640 28 0 8.0 32.2 0.00 0.23 0.13 79 998.4
20260505213540 28 0 9.7 32.2 0.00 0.23 0.13 79 998.4
20260505213440 28 0 9.7 32.2 0.00 0.23 0.13 79 998.4
20260505213339 28 0 9.7 32.2 0.00 0.23 0.13 79 998.4
20260505213240 28 0 12.9 32.2 0.00 0.23 0.13 79 998.4
20260505213139 28 0 16.1 32.2 0.00 0.23 0.13 79 998.5
20260505213039 28 0 19.3 32.2 0.00 0.23 0.13 79 998.5
20260505212941 28 0 17.7 29.0 0.00 0.23 0.13 79 998.7
20260505212839 28 0 16.1 24.1 0.00 0.23 0.13 79 998.6
20260505212739 28 0 14.5 24.1 0.00 0.23 0.13 79 998.6
20260505212639 28 0 11.3 24.1 0.00 0.23 0.13 79 998.6
20260505212539 28 0 11.3 25.7 0.00 0.23 0.13 79 998.6
20260505212439 28 0 12.9 27.4 0.00 0.23 0.13 79 998.6
20260505212339 28 0 12.9 27.4 0.00 0.23 0.13 79 998.7
20260505212242 28 0 11.3 27.4 0.00 0.23 0.13 79 998.8
20260505212139 28 0 11.3 27.4 0.00 0.23 0.13 79 998.6
20260505212039 28 0 11.3 27.4 0.00 0.23 0.13 79 998.7
20260505211941 28 0 11.3 27.4 0.00 0.23 0.13 79 998.7
20260505211839 28 0 14.5 27.4 0.00 0.23 0.13 79 998.7
20260505211739 28 0 16.1 27.4 0.00 0.23 0.13 79 998.7
20260505211639 28 0 17.7 27.4 0.00 0.23 0.13 78 998.7
20260505211541 28 0 16.1 27.4 0.00 0.23 0.13 79 998.8
20260505211439 28 0 14.5 27.4 0.00 0.23 0.13 79 998.8
20260505211339 28 0 14.5 27.4 0.00 0.23 0.13 79 998.7
20260505211240 28 0 14.5 27.4 0.00 0.23 0.13 79 998.8
20260505211138 28 0 14.5 24.1 0.00 0.23 0.13 79 998.7
20260505211040 28 0 11.3 24.1 0.00 0.23 0.13 79 998.6
20260505210939 28 0 11.3 24.1 0.00 0.23 0.13 79 998.6
20260505210840 28 0 11.3 24.1 0.00 0.23 0.13 79 998.7
20260505210738 28 0 14.5 24.1 0.00 0.23 0.13 79 998.6
20260505210638 28 0 11.3 20.9 0.00 0.23 0.13 80 998.6
20260505210538 28 0 8.0 19.3 0.00 0.23 0.13 80 998.6
20260505210439 28 0 8.0 19.3 0.00 0.23 0.13 79 998.6
20260505210340 28 0 9.7 20.9 0.00 0.23 0.13 79 998.7
20260505210240 28 0 11.3 27.4 0.00 0.23 0.13 79 998.6
20260505210140 28 0 11.3 27.4 0.00 0.23 0.13 78 998.7
20260505210039 28 0 11.3 27.4 0.00 0.23 0.13 78 998.8
20260505205936 28 0 11.3 27.4 0.00 0.23 0.13 78 998.8
20260505205835 28 0 11.3 32.2 0.00 0.23 0.13 78 998.8
20260505205733 28 0 11.3 32.2 0.00 0.23 0.13 78 998.8
20260505205632 28 0 12.9 32.2 0.00 0.25 0.13 78 998.8
20260505205532 28 0 12.9 32.2 0.00 0.25 0.13 79 998.8
20260505205430 28 0 14.5 32.2 0.00 0.25 0.13 79 998.8
20260505205332 28 0 16.1 32.2 0.00 0.25 0.13 78 998.8
20260505205231 28 0 14.5 32.2 0.00 0.25 0.13 78 998.9
20260505205131 28 0 14.5 32.2 0.00 0.25 0.13 78 998.8
20260505205031 28 0 16.1 32.2 0.00 0.25 0.13 78 998.9
20260505204932 28 0 12.9 32.2 0.00 0.25 0.13 79 998.9
20260505204831 28 0 11.3 29.0 0.00 0.25 0.13 78 998.8
20260505204731 28 0 12.9 29.0 0.00 0.25 0.13 78 998.9
20260505204632 28 0 14.5 29.0 0.00 0.25 0.13 78 998.8
20260505204531 28 0 16.1 29.0 0.00 0.25 0.13 78 999.0
20260505204431 28 0 16.1 29.0 0.00 0.25 0.13 78 998.9
20260505204332 28 0 14.5 25.7 0.00 0.25 0.13 78 998.9
20260505204232 28 0 11.3 25.7 0.00 0.25 0.13 78 999.0
20260505204131 28 0 12.9 25.7 0.00 0.25 0.13 78 998.9
20260505204031 28 0 14.5 25.7 0.00 0.25 0.13 78 999.0
20260505203932 28 0 12.9 25.7 0.00 0.25 0.13 79 999.0
20260505203831 28 0 12.9 25.7 0.00 0.25 0.13 78 999.0
20260505203731 28 0 12.9 25.7 0.00 0.25 0.13 78 999.0
20260505203633 28 0 14.5 25.7 0.00 0.25 0.13 79 999.0
20260505203532 28 0 12.9 25.7 0.00 0.25 0.13 79 999.0
20260505203432 28 0 12.9 19.3 0.00 0.25 0.13 79 999.0
20260505203331 28 0 12.9 19.3 0.00 0.25 0.13 79 999.1
20260505203232 28 0 11.3 20.9 0.00 0.25 0.13 79 999.1
20260505203131 28 0 11.3 20.9 0.00 0.25 0.13 79 999.2
20260505203030 28 0 11.3 25.7 0.00 0.25 0.13 79 999.2
20260505202932 28 0 11.3 25.7 0.00 0.25 0.13 79 999.2
20260505202831 28 0 12.9 25.7 0.00 0.25 0.13 79 999.3
20260505202731 28 0 12.9 25.7 0.00 0.25 0.13 79 999.2
20260505202631 28 0 12.9 25.7 0.00 0.25 0.13 79 999.2
20260505202531 28 0 11.3 25.7 0.00 0.25 0.13 79 999.2
20260505202431 28 0 14.5 25.7 0.00 0.25 0.13 79 999.2
20260505202331 28 0 14.5 25.7 0.00 0.25 0.13 79 999.3
20260505202232 28 0 16.1 25.7 0.00 0.25 0.13 79 999.2
20260505202131 28 0 14.5 25.7 0.00 0.25 0.13 79 999.2
20260505202030 28 0 11.3 25.7 0.00 0.25 0.13 80 999.2
20260505201932 28 0 12.9 25.7 0.00 0.25 0.13 79 999.2
20260505201832 28 0 14.5 25.7 0.00 0.25 0.13 79 999.2
20260505201731 28 0 16.1 25.7 0.00 0.25 0.13 79 999.2
20260505201631 28 0 17.7 25.7 0.00 0.25 0.13 79 999.3
20260505201532 28 0 17.7 25.7 0.00 0.25 0.13 79 999.4
20260505201432 28 0 16.1 27.4 0.00 0.25 0.13 79 999.4
20260505201331 28 0 12.9 27.4 0.00 0.25 0.13 80 999.4
20260505201233 28 0 11.3 27.4 0.00 0.25 0.13 80 999.3
20260505201131 28 0 12.9 27.4 0.00 0.25 0.13 80 999.4
20260505201030 28 0 12.9 27.4 0.00 0.25 0.13 80 999.3
20260505200931 28 0 14.5 27.4 0.00 0.25 0.13 79 999.5
20260505200832 28 0 16.1 27.4 0.00 0.25 0.13 80 999.5
20260505200731 28 0 14.5 27.4 0.00 0.25 0.13 80 999.6
20260505200632 28 0 16.1 27.4 0.00 0.25 0.13 79 999.5
20260505200532 28 0 16.1 27.4 0.00 0.25 0.13 79 999.6
20260505200432 28 0 14.5 22.5 0.00 0.25 0.13 79 999.5
20260505200331 28 0 11.3 20.9 0.00 0.25 0.13 80 999.5
20260505200233 28 0 8.0 20.9 0.00 0.25 0.13 80 999.5
20260505200131 28 0 8.0 20.9 0.00 0.25 0.13 80 999.5
20260505200031 28 0 11.3 20.9 0.00 0.25 0.13 80 999.6
20260505195932 28 0 14.5 20.9 0.00 0.25 0.13 80 999.7
20260505195832 28 0 11.3 20.9 0.00 0.25 0.13 80 999.6
20260505195731 28 0 12.9 20.9 0.00 0.25 0.13 80 999.7
20260505195631 28 0 11.3 20.9 0.00 0.25 0.13 80 999.7
20260505195533 28 0 8.0 19.3 0.00 0.25 0.13 80 999.7
20260505195432 28 0 9.7 19.3 0.00 0.25 0.13 80 999.8
20260505195330 28 0 9.7 19.3 0.00 0.25 0.13 80 999.8
20260505195230 28 0 11.3 25.7 0.00 0.25 0.13 80 999.9
20260505195128 28 0 11.3 25.7 0.00 0.25 0.13 80 999.9
20260505195026 28 0 12.9 25.7 0.00 0.25 0.13 80 999.8
20260505194925 28 0 9.7 25.7 0.00 0.25 0.13 81 999.8
20260505194823 28 0 9.7 25.7 0.00 0.25 0.13 81 999.8
20260505194721 28 0 8.0 27.4 0.00 0.25 0.13 80 999.8
20260505194620 28 0 9.7 32.2 0.00 0.25 0.13 80 999.9
20260505194518 28 0 11.3 32.2 0.00 0.25 0.13 80 999.9
20260505194416 28 0 14.5 32.2 0.00 0.25 0.13 80 999.9
20260505194305 28 0 16.1 33.8 0.00 0.25 0.13 80 1000.0
20260505194204 28 0 14.5 33.8 0.00 0.25 0.13 80 999.9
20260505194103 27 0 12.9 33.8 0.00 0.25 0.13 80 999.9
20260505194003 27 0 14.5 33.8 0.00 0.25 0.13 80 1000.0
20260505193904 27 0 16.1 33.8 0.00 0.25 0.13 80 999.9
20260505193802 27 0 19.3 33.8 0.00 0.25 0.13 80 999.8
20260505193702 27 0 19.3 33.8 0.00 0.25 0.13 80 999.9
20260505193602 28 0 17.7 33.8 0.00 0.25 0.13 80 999.9
20260505193505 28 0 17.7 33.8 0.00 0.25 0.13 80 1000.0
20260505193402 28 0 14.5 33.8 0.00 0.25 0.13 80 999.9
20260505193302 28 0 12.9 25.7 0.00 0.28 0.13 80 999.9
20260505193203 28 0 16.1 25.7 0.00 0.28 0.13 80 1000.0
20260505193102 28 0 12.9 25.7 0.00 0.28 0.13 80 999.9
20260505193002 28 0 11.3 25.7 0.00 0.28 0.13 80 999.9
20260505192904 28 0 11.3 25.7 0.00 0.28 0.13 80 999.8
20260505192802 28 0 12.9 25.7 0.00 0.28 0.13 80 999.9
20260505192702 27 0 12.9 25.7 0.00 0.28 0.13 80 999.9
20260505192602 28 0 14.5 25.7 0.00 0.28 0.13 80 999.9
20260505192504 28 0 14.5 25.7 0.00 0.28 0.13 80 999.9
20260505192402 28 0 12.9 25.7 0.00 0.28 0.13 80 999.9
20260505192305 28 0 14.5 25.7 0.00 0.28 0.13 80 999.9
20260505192203 28 0 14.5 25.7 0.00 0.28 0.13 80 999.8
20260505192102 28 0 14.5 25.7 0.00 0.28 0.13 80 999.9
20260505192002 28 0 12.9 22.5 0.00 0.28 0.13 80 999.9
20260505191902 28 0 12.9 20.9 0.00 0.28 0.13 80 999.9
20260505191802 28 0 12.9 20.9 0.00 0.28 0.13 81 999.8
20260505191702 28 0 9.7 20.9 0.00 0.28 0.13 81 999.8
20260505191602 28 0 9.7 20.9 0.00 0.28 0.13 81 999.8
20260505191504 28 0 9.7 20.9 0.00 0.28 0.13 81 999.9
20260505191402 28 0 8.0 22.5 0.00 0.28 0.13 81 999.9
20260505191300 28 0 9.7 22.5 0.00 0.28 0.13 81 999.8
20260505191158 28 0 11.3 22.5 0.00 0.28 0.13 81 1000.0
20260505191057 28 0 9.7 22.5 0.00 0.28 0.13 81 999.9
20260505190955 27 0 8.0 22.5 0.00 0.28 0.13 82 999.9
20260505190855 27 0 6.4 22.5 0.00 0.28 0.13 82 999.9
20260505190753 27 0 8.0 22.5 0.00 0.28 0.13 81 999.9
20260505190650 27 0 12.9 22.5 0.00 0.28 0.13 81 1000.0
20260505190549 27 0 14.5 24.1 0.00 0.28 0.13 81 999.9
20260505190448 27 0 12.9 24.1 0.00 0.28 0.13 82 1000.0
20260505190345 27 0 11.3 24.1 0.00 0.28 0.13 82 1000.0
20260505190246 27 0 9.7 24.1 0.00 0.28 0.13 82 999.9
20260505190140 27 0 9.7 24.1 0.00 0.28 0.13 82 1000.0
20260505190039 27 0 9.7 32.2 0.00 0.28 0.13 82 1000.1
20260505185936 27 0 9.7 32.2 0.00 0.28 0.13 82 1000.0
20260505185836 27 0 12.9 32.2 0.00 0.28 0.13 82 1000.1
20260505185737 27 0 14.5 32.2 0.00 0.28 0.13 82 1000.1
20260505185637 27 0 14.5 32.2 0.00 0.28 0.13 82 1000.2
20260505185536 27 0 12.9 32.2 0.00 0.28 0.13 82 1000.2
20260505185436 27 0 14.5 32.2 0.00 0.28 0.13 82 1000.2
20260505185337 27 0 12.9 32.2 0.00 0.28 0.13 82 1000.2
20260505185235 27 0 14.5 32.2 0.00 0.28 0.13 82 1000.2
20260505185136 27 0 16.1 32.2 0.00 0.28 0.13 83 1000.2
20260505185037 27 0 14.5 22.5 0.00 0.28 0.13 83 1000.3
20260505184936 27 0 14.5 22.5 0.00 0.28 0.13 83 1000.2
20260505184836 27 0 11.3 22.5 0.00 0.28 0.13 83 1000.2
20260505184736 27 0 11.3 22.5 0.00 0.28 0.13 83 1000.2
20260505184636 27 0 12.9 24.1 0.00 0.28 0.13 83 1000.2
20260505184536 27 0 11.3 24.1 0.00 0.28 0.13 84 1000.2
20260505184436 27 0 8.0 24.1 0.00 0.28 0.13 84 1000.3
20260505184335 27 0 9.7 24.1 0.03 0.28 0.13 84 1000.3
20260505184236 27 0 9.7 24.1 0.03 0.28 0.13 84 1000.4
20260505184136 27 0 8.0 24.1 0.03 0.28 0.13 84 1000.4
20260505184036 27 0 9.7 24.1 0.03 0.28 0.13 84 1000.3
20260505183935 27 0 11.3 24.1 0.03 0.28 0.13 84 1000.4
20260505183835 27 0 11.3 24.1 0.03 0.28 0.13 84 1000.5
20260505183736 27 0 11.3 24.1 0.03 0.28 0.13 84 1000.5
20260505183635 27 0 14.5 24.1 0.03 0.28 0.13 84 1000.5
20260505183536 27 0 16.1 24.1 0.03 0.28 0.13 84 1000.5
20260505183435 27 0 14.5 24.1 0.03 0.28 0.13 84 1000.5
20260505183336 27 0 11.3 24.1 0.03 0.28 0.13 84 1000.7
20260505183237 27 0 11.3 24.1 0.03 0.28 0.13 84 1000.5
20260505183135 27 0 11.3 24.1 0.03 0.28 0.13 84 1000.5
20260505183037 27 0 11.3 24.1 0.03 0.28 0.13 84 1000.3
20260505182935 27 0 12.9 24.1 0.03 0.28 0.13 84 1000.5
20260505182835 27 0 11.3 24.1 0.03 0.28 0.13 84 1000.5
20260505182736 27 0 9.7 24.1 0.03 0.28 0.13 84 1000.4
20260505182635 27 0 11.3 24.1 0.03 0.28 0.13 84 1000.4
20260505182537 27 0 14.5 24.1 0.03 0.28 0.13 84 1000.4